GEFSMA_prec_meanprecacc_012.txt.gz
Total_Precipitation_Accumulation
0.04 0.04 0.03 0.03 0.04 0.06 0.06 0.05 0.05 0.04 0.04 0.04 0.03 0.01 0.01 0.00 0.00 0.00 0.00 0.00 0.00 0.01 0.04 0.12 0.23 0.31 0.33 0.33 0.25 0.12 0.04 0.01 0.00 0.00 0.00 0.00 0.00 0.00 0.00 0.00 0.00 0.00 0.00
0.01 0.01 0.01 0.02 0.02 0.02 0.02 0.01 0.01 0.01 0.01 0.01 0.01 0.01 0.01 0.01 0.00 0.00 0.00 0.00 0.00 0.01 0.02 0.07 0.13 0.26 0.33 0.32 0.26 0.17 0.07 0.02 0.00 0.00 0.00 0.00 0.00 0.00 0.00 0.00 0.00 0.00 0.00
0.00 0.00 0.01 0.01 0.01 0.01 0.01 0.00 0.00 0.00 0.00 0.00 0.00 0.00 0.00 0.00 0.00 0.00 0.00 0.00 0.01 0.01 0.02 0.05 0.06 0.15 0.27 0.32 0.28 0.20 0.16 0.06 0.02 0.00 0.00 0.00 0.00 0.00 0.00 0.00 0.00 0.00 0.00
0.00 0.00 0.00 0.00 0.00 0.00 0.00 0.00 0.00 0.00 0.00 0.00 0.00 0.00 0.00 0.00 0.00 0.00 0.00 0.00 0.01 0.02 0.03 0.04 0.06 0.08 0.19 0.30 0.36 0.31 0.33 0.21 0.08 0.02 0.00 0.00 0.00 0.00 0.00 0.00 0.00 0.00 0.00
0.00 0.00 0.00 0.00 0.00 0.00 0.00 0.00 0.00 0.00 0.00 0.00 0.00 0.00 0.00 0.00 0.00 0.01 0.02 0.01 0.01 0.01 0.03 0.04 0.06 0.07 0.13 0.25 0.35 0.39 0.48 0.49 0.29 0.10 0.03 0.01 0.00 0.00 0.00 0.00 0.00 0.00 0.00
0.00 0.00 0.00 0.00 0.00 0.00 0.00 0.00 0.00 0.00 0.00 0.00 0.00 0.00 0.00 0.00 0.00 0.00 0.01 0.03 0.03 0.02 0.03 0.04 0.06 0.05 0.06 0.11 0.24 0.41 0.52 0.59 0.57 0.35 0.17 0.05 0.01 0.00 0.00 0.00 0.00 0.00 0.00
0.00 0.00 0.00 0.00 0.00 0.00 0.00 0.00 0.00 0.00 0.01 0.01 0.01 0.00 0.00 0.00 0.00 0.00 0.00 0.01 0.02 0.02 0.03 0.04 0.06 0.05 0.04 0.06 0.10 0.18 0.34 0.50 0.61 0.63 0.49 0.26 0.09 0.02 0.00 0.00 0.00 0.00 0.00
0.00 0.00 0.00 0.00 0.00 0.00 0.00 0.00 0.01 0.01 0.01 0.02 0.02 0.02 0.00 0.00 0.00 0.00 0.00 0.00 0.00 0.01 0.02 0.03 0.04 0.05 0.05 0.05 0.04 0.07 0.15 0.30 0.39 0.51 0.62 0.52 0.30 0.13 0.03 0.00 0.00 0.00 0.00
0.00 0.00 0.00 0.00 0.00 0.00 0.01 0.01 0.01 0.02 0.02 0.02 0.04 0.05 0.03 0.00 0.00 0.00 0.00 0.00 0.00 0.00 0.01 0.02 0.04 0.05 0.06 0.07 0.07 0.08 0.10 0.17 0.30 0.37 0.43 0.47 0.40 0.30 0.16 0.05 0.01 0.00 0.00
0.00 0.00 0.00 0.00 0.00 0.00 0.01 0.02 0.03 0.03 0.03 0.03 0.04 0.05 0.04 0.03 0.02 0.01 0.00 0.00 0.00 0.00 0.00 0.01 0.03 0.04 0.06 0.08 0.10 0.12 0.14 0.11 0.19 0.25 0.26 0.33 0.34 0.30 0.25 0.14 0.06 0.01 0.00
0.00 0.00 0.00 0.00 0.00 0.00 0.01 0.02 0.03 0.04 0.05 0.05 0.04 0.04 0.04 0.04 0.03 0.03 0.01 0.00 0.00 0.01 0.01 0.01 0.03 0.04 0.05 0.08 0.11 0.12 0.14 0.11 0.10 0.17 0.19 0.25 0.29 0.27 0.25 0.18 0.10 0.05 0.02
0.00 0.00 0.00 0.00 0.00 0.00 0.01 0.02 0.03 0.05 0.06 0.06 0.06 0.05 0.04 0.03 0.03 0.04 0.03 0.02 0.01 0.01 0.01 0.01 0.02 0.04 0.06 0.09 0.10 0.10 0.11 0.11 0.06 0.09 0.15 0.20 0.25 0.28 0.29 0.20 0.09 0.04 0.02
0.00 0.00 0.00 0.00 0.00 0.00 0.01 0.02 0.04 0.05 0.05 0.06 0.06 0.05 0.04 0.04 0.04 0.05 0.05 0.03 0.02 0.01 0.01 0.01 0.02 0.04 0.05 0.07 0.08 0.07 0.07 0.08 0.10 0.12 0.15 0.15 0.18 0.22 0.26 0.23 0.12 0.03 0.01
0.01 0.00 0.00 0.00 0.00 0.01 0.01 0.02 0.04 0.05 0.05 0.06 0.06 0.05 0.05 0.04 0.04 0.05 0.05 0.05 0.04 0.02 0.01 0.01 0.01 0.02 0.05 0.07 0.08 0.06 0.05 0.06 0.08 0.11 0.13 0.14 0.14 0.17 0.21 0.23 0.16 0.07 0.04
0.01 0.01 0.01 0.01 0.01 0.01 0.01 0.02 0.04 0.06 0.07 0.07 0.07 0.08 0.08 0.07 0.06 0.05 0.04 0.05 0.05 0.04 0.02 0.01 0.01 0.01 0.03 0.07 0.10 0.07 0.06 0.06 0.05 0.08 0.11 0.12 0.13 0.14 0.16 0.17 0.16 0.11 0.06
0.01 0.01 0.01 0.01 0.02 0.02 0.03 0.03 0.04 0.05 0.08 0.09 0.10 0.10 0.11 0.12 0.10 0.08 0.06 0.05 0.05 0.05 0.03 0.01 0.01 0.01 0.03 0.06 0.10 0.08 0.07 0.06 0.05 0.06 0.08 0.11 0.12 0.13 0.14 0.13 0.10 0.08 0.04
0.01 0.01 0.02 0.03 0.04 0.05 0.05 0.05 0.08 0.11 0.13 0.13 0.15 0.16 0.17 0.16 0.16 0.14 0.11 0.08 0.06 0.06 0.05 0.02 0.01 0.01 0.03 0.06 0.08 0.07 0.08 0.05 0.04 0.04 0.06 0.08 0.10 0.11 0.11 0.11 0.08 0.05 0.02
0.01 0.01 0.05 0.08 0.09 0.09 0.08 0.08 0.12 0.21 0.30 0.30 0.26 0.23 0.22 0.23 0.24 0.22 0.19 0.14 0.09 0.07 0.06 0.04 0.02 0.01 0.02 0.05 0.07 0.06 0.05 0.03 0.02 0.02 0.03 0.04 0.06 0.07 0.08 0.07 0.05 0.02 0.01
0.01 0.02 0.07 0.14 0.16 0.16 0.16 0.16 0.17 0.23 0.37 0.48 0.49 0.44 0.37 0.30 0.29 0.29 0.29 0.25 0.18 0.12 0.09 0.07 0.04 0.02 0.02 0.05 0.07 0.06 0.03 0.02 0.01 0.02 0.02 0.01 0.01 0.02 0.02 0.02 0.02 0.01 0.01
0.02 0.04 0.07 0.14 0.18 0.20 0.25 0.30 0.29 0.31 0.37 0.49 0.57 0.58 0.53 0.45 0.36 0.33 0.32 0.33 0.30 0.23 0.15 0.11 0.07 0.04 0.02 0.04 0.07 0.07 0.04 0.02 0.01 0.01 0.01 0.01 0.00 0.00 0.00 0.00 0.00 0.00 0.00
0.02 0.04 0.05 0.07 0.11 0.17 0.29 0.32 0.24 0.27 0.31 0.34 0.38 0.42 0.46 0.48 0.49 0.42 0.36 0.33 0.33 0.32 0.25 0.17 0.10 0.06 0.04 0.04 0.07 0.08 0.08 0.07 0.04 0.02 0.01 0.00 0.00 0.00 0.00 0.00 0.00 0.00 0.00
0.01 0.03 0.03 0.04 0.06 0.13 0.24 0.24 0.11 0.11 0.14 0.18 0.22 0.24 0.26 0.32 0.38 0.42 0.42 0.35 0.32 0.32 0.30 0.24 0.15 0.08 0.04 0.04 0.04 0.07 0.09 0.11 0.08 0.05 0.04 0.04 0.02 0.01 0.00 0.00 0.00 0.00 0.00
0.01 0.03 0.02 0.01 0.02 0.07 0.15 0.17 0.06 0.01 0.03 0.05 0.08 0.10 0.12 0.16 0.19 0.22 0.25 0.25 0.25 0.26 0.27 0.24 0.20 0.14 0.07 0.04 0.03 0.04 0.07 0.11 0.11 0.10 0.11 0.11 0.09 0.06 0.02 0.00 0.00 0.00 0.00
0.01 0.02 0.02 0.00 0.01 0.03 0.10 0.16 0.09 0.01 0.00 0.00 0.01 0.02 0.03 0.06 0.10 0.13 0.14 0.15 0.16 0.18 0.21 0.21 0.22 0.20 0.15 0.10 0.06 0.05 0.06 0.08 0.11 0.16 0.21 0.25 0.21 0.15 0.08 0.03 0.01 0.00 0.00
0.00 0.00 0.01 0.00 0.00 0.00 0.06 0.17 0.16 0.02 0.00 0.00 0.02 0.04 0.02 0.01 0.03 0.04 0.06 0.08 0.09 0.13 0.16 0.18 0.16 0.15 0.14 0.13 0.11 0.09 0.10 0.10 0.11 0.15 0.23 0.34 0.36 0.28 0.18 0.10 0.05 0.02 0.01
0.00 0.00 0.00 0.00 0.00 0.00 0.02 0.15 0.26 0.06 0.01 0.01 0.01 0.04 0.06 0.03 0.02 0.01 0.02 0.03 0.04 0.07 0.07 0.07 0.06 0.04 0.03 0.04 0.06 0.09 0.13 0.14 0.14 0.15 0.17 0.23 0.34 0.37 0.33 0.20 0.08 0.03 0.02

GEFSMA_prec_meanprecacc_018.txt.gz
Total_Precipitation_Accumulation
0.04 0.04 0.03 0.03 0.04 0.06 0.06 0.05 0.05 0.06 0.08 0.09 0.10 0.11 0.13 0.13 0.12 0.09 0.06 0.03 0.01 0.01 0.04 0.12 0.24 0.34 0.38 0.42 0.45 0.35 0.26 0.12 0.03 0.01 0.00 0.00 0.00 0.00 0.00 0.00 0.01 0.01 0.02
0.01 0.01 0.01 0.02 0.02 0.02 0.02 0.01 0.01 0.01 0.01 0.03 0.04 0.06 0.09 0.09 0.10 0.10 0.09 0.07 0.03 0.01 0.03 0.07 0.13 0.27 0.35 0.37 0.40 0.44 0.33 0.21 0.10 0.04 0.01 0.00 0.00 0.00 0.00 0.00 0.00 0.01 0.01
0.00 0.00 0.01 0.01 0.01 0.01 0.01 0.00 0.00 0.00 0.00 0.00 0.01 0.01 0.02 0.04 0.06 0.06 0.07 0.09 0.07 0.03 0.02 0.05 0.06 0.15 0.27 0.33 0.34 0.42 0.44 0.31 0.20 0.12 0.06 0.02 0.01 0.00 0.00 0.00 0.00 0.00 0.01
0.00 0.00 0.00 0.00 0.00 0.00 0.00 0.00 0.00 0.00 0.00 0.00 0.00 0.00 0.00 0.01 0.02 0.02 0.03 0.05 0.09 0.07 0.04 0.04 0.06 0.08 0.19 0.30 0.38 0.40 0.61 0.51 0.34 0.23 0.14 0.06 0.02 0.00 0.00 0.00 0.00 0.00 0.00
0.00 0.00 0.00 0.00 0.00 0.00 0.00 0.00 0.00 0.00 0.00 0.00 0.00 0.00 0.00 0.00 0.01 0.02 0.02 0.03 0.03 0.05 0.06 0.05 0.06 0.07 0.13 0.25 0.36 0.42 0.63 0.81 0.58 0.34 0.20 0.09 0.04 0.01 0.00 0.00 0.00 0.00 0.00
0.00 0.00 0.00 0.00 0.00 0.00 0.00 0.00 0.00 0.00 0.00 0.00 0.00 0.00 0.00 0.00 0.00 0.01 0.02 0.03 0.03 0.03 0.03 0.05 0.06 0.05 0.06 0.11 0.24 0.42 0.56 0.75 0.84 0.59 0.35 0.16 0.06 0.02 0.00 0.00 0.00 0.00 0.00
0.00 0.00 0.00 0.00 0.00 0.00 0.00 0.00 0.00 0.00 0.01 0.01 0.01 0.00 0.00 0.00 0.00 0.00 0.00 0.01 0.02 0.02 0.03 0.04 0.06 0.05 0.04 0.06 0.10 0.18 0.37 0.55 0.75 0.83 0.70 0.40 0.16 0.05 0.01 0.00 0.00 0.00 0.00
0.00 0.00 0.00 0.00 0.00 0.00 0.00 0.00 0.01 0.01 0.01 0.02 0.03 0.02 0.01 0.00 0.00 0.00 0.00 0.00 0.00 0.01 0.03 0.04 0.04 0.05 0.06 0.05 0.04 0.08 0.16 0.33 0.45 0.61 0.78 0.70 0.42 0.18 0.05 0.01 0.00 0.00 0.00
0.00 0.00 0.00 0.00 0.00 0.00 0.01 0.01 0.02 0.02 0.03 0.02 0.04 0.06 0.04 0.01 0.00 0.00 0.00 0.00 0.00 0.00 0.01 0.03 0.06 0.06 0.08 0.09 0.08 0.09 0.10 0.19 0.35 0.43 0.52 0.61 0.55 0.41 0.22 0.07 0.01 0.00 0.00
0.00 0.00 0.00 0.00 0.00 0.00 0.01 0.02 0.03 0.03 0.04 0.04 0.04 0.05 0.05 0.04 0.04 0.01 0.00 0.01 0.01 0.01 0.01 0.01 0.04 0.06 0.08 0.11 0.13 0.14 0.14 0.12 0.23 0.32 0.33 0.42 0.45 0.44 0.39 0.23 0.08 0.02 0.00
0.00 0.00 0.00 0.00 0.00 0.00 0.02 0.03 0.04 0.05 0.07 0.07 0.06 0.06 0.05 0.04 0.04 0.04 0.02 0.01 0.02 0.03 0.02 0.02 0.03 0.05 0.07 0.10 0.14 0.14 0.16 0.13 0.16 0.25 0.29 0.36 0.39 0.39 0.45 0.35 0.16 0.06 0.02
0.00 0.00 0.00 0.00 0.00 0.00 0.01 0.03 0.05 0.06 0.08 0.08 0.08 0.07 0.06 0.05 0.04 0.06 0.05 0.03 0.02 0.02 0.03 0.03 0.03 0.05 0.08 0.10 0.11 0.12 0.12 0.13 0.13 0.19 0.23 0.31 0.40 0.42 0.44 0.35 0.17 0.06 0.02
0.00 0.00 0.00 0.00 0.00 0.01 0.02 0.04 0.06 0.07 0.07 0.08 0.08 0.07 0.07 0.06 0.06 0.07 0.07 0.05 0.03 0.02 0.01 0.02 0.03 0.06 0.07 0.08 0.10 0.09 0.08 0.10 0.13 0.18 0.21 0.21 0.26 0.36 0.47 0.49 0.32 0.10 0.02
0.01 0.00 0.00 0.00 0.00 0.01 0.03 0.05 0.06 0.06 0.07 0.08 0.08 0.08 0.08 0.07 0.06 0.07 0.07 0.07 0.06 0.03 0.02 0.01 0.01 0.04 0.07 0.09 0.10 0.08 0.07 0.07 0.10 0.14 0.15 0.18 0.20 0.24 0.31 0.42 0.44 0.29 0.15
0.01 0.01 0.01 0.01 0.01 0.02 0.04 0.04 0.06 0.07 0.09 0.09 0.10 0.11 0.12 0.11 0.10 0.08 0.07 0.07 0.08 0.07 0.03 0.01 0.02 0.03 0.06 0.10 0.13 0.09 0.08 0.06 0.06 0.08 0.12 0.14 0.18 0.23 0.26 0.29 0.33 0.35 0.32
0.01 0.01 0.01 0.01 0.02 0.04 0.05 0.05 0.06 0.07 0.09 0.11 0.14 0.16 0.18 0.20 0.19 0.15 0.12 0.10 0.09 0.08 0.06 0.02 0.02 0.02 0.06 0.10 0.15 0.11 0.10 0.08 0.06 0.06 0.09 0.13 0.16 0.24 0.31 0.34 0.34 0.34 0.30
0.01 0.01 0.02 0.04 0.05 0.07 0.07 0.07 0.09 0.13 0.14 0.15 0.19 0.25 0.28 0.29 0.30 0.27 0.22 0.16 0.12 0.10 0.08 0.04 0.02 0.02 0.06 0.10 0.13 0.13 0.13 0.09 0.05 0.05 0.07 0.10 0.15 0.21 0.30 0.37 0.38 0.36 0.34
0.01 0.01 0.05 0.08 0.10 0.11 0.10 0.11 0.15 0.23 0.32 0.32 0.30 0.30 0.31 0.33 0.34 0.33 0.30 0.23 0.15 0.11 0.10 0.07 0.03 0.02 0.04 0.09 0.13 0.14 0.14 0.10 0.06 0.05 0.06 0.08 0.12 0.17 0.25 0.32 0.35 0.35 0.36
0.01 0.02 0.07 0.14 0.16 0.17 0.18 0.19 0.22 0.27 0.39 0.50 0.52 0.49 0.43 0.36 0.34 0.34 0.34 0.30 0.22 0.15 0.12 0.10 0.06 0.03 0.04 0.10 0.15 0.17 0.16 0.13 0.09 0.07 0.06 0.07 0.09 0.13 0.18 0.23 0.26 0.28 0.30
0.02 0.04 0.07 0.14 0.18 0.20 0.26 0.35 0.39 0.36 0.39 0.50 0.59 0.62 0.60 0.54 0.45 0.40 0.37 0.37 0.33 0.25 0.18 0.14 0.12 0.08 0.06 0.11 0.19 0.20 0.17 0.14 0.11 0.08 0.07 0.05 0.06 0.08 0.11 0.12 0.13 0.16 0.20
0.02 0.04 0.05 0.07 0.11 0.17 0.29 0.40 0.39 0.34 0.32 0.35 0.40 0.45 0.52 0.60 0.63 0.56 0.49 0.42 0.38 0.35 0.29 0.22 0.17 0.13 0.11 0.14 0.22 0.24 0.22 0.19 0.15 0.10 0.07 0.04 0.03 0.03 0.05 0.08 0.11 0.12 0.13
0.02 0.03 0.03 0.04 0.06 0.13 0.24 0.31 0.24 0.16 0.15 0.19 0.24 0.27 0.31 0.41 0.49 0.55 0.57 0.50 0.45 0.43 0.41 0.36 0.28 0.20 0.16 0.17 0.24 0.30 0.28 0.26 0.21 0.13 0.09 0.08 0.05 0.04 0.04 0.04 0.07 0.08 0.08
0.01 0.03 0.02 0.01 0.02 0.07 0.17 0.26 0.19 0.06 0.04 0.07 0.11 0.14 0.16 0.22 0.27 0.30 0.36 0.38 0.42 0.48 0.53 0.52 0.48 0.38 0.25 0.20 0.25 0.32 0.31 0.26 0.24 0.21 0.17 0.18 0.16 0.12 0.07 0.06 0.07 0.06 0.05
0.01 0.02 0.02 0.00 0.01 0.03 0.14 0.28 0.20 0.04 0.02 0.04 0.07 0.07 0.06 0.10 0.16 0.19 0.21 0.26 0.32 0.42 0.55 0.62 0.65 0.60 0.46 0.34 0.30 0.39 0.43 0.33 0.29 0.31 0.28 0.32 0.29 0.22 0.15 0.10 0.08 0.05 0.04
0.00 0.00 0.01 0.00 0.00 0.01 0.10 0.31 0.26 0.04 0.03 0.05 0.09 0.10 0.05 0.03 0.07 0.06 0.09 0.14 0.18 0.29 0.41 0.51 0.54 0.54 0.53 0.51 0.48 0.49 0.54 0.44 0.41 0.44 0.40 0.42 0.43 0.34 0.25 0.18 0.13 0.07 0.04
0.00 0.00 0.00 0.00 0.00 0.00 0.06 0.28 0.36 0.08 0.03 0.05 0.07 0.08 0.10 0.05 0.04 0.02 0.03 0.05 0.08 0.15 0.20 0.24 0.29 0.33 0.37 0.43 0.51 0.58 0.66 0.57 0.52 0.53 0.45 0.37 0.44 0.44 0.40 0.29 0.15 0.07 0.04

GEFSMA_prec_meanprecacc_024.txt.gz
Total_Precipitation_Accumulation
0.04 0.04 0.03 0.03 0.04 0.06 0.06 0.05 0.05 0.06 0.08 0.09 0.10 0.11 0.13 0.13 0.14 0.12 0.10 0.09 0.07 0.08 0.13 0.25 0.40 0.53 0.60 0.67 0.74 0.64 0.54 0.32 0.10 0.02 0.01 0.01 0.01 0.02 0.02 0.03 0.03 0.03 0.03
0.01 0.01 0.01 0.02 0.02 0.02 0.02 0.01 0.01 0.01 0.01 0.03 0.04 0.06 0.09 0.10 0.11 0.13 0.13 0.14 0.12 0.10 0.11 0.16 0.25 0.42 0.51 0.54 0.66 0.77 0.65 0.55 0.34 0.12 0.03 0.01 0.01 0.01 0.01 0.03 0.04 0.04 0.04
0.00 0.00 0.01 0.01 0.01 0.01 0.01 0.00 0.00 0.00 0.00 0.00 0.01 0.01 0.02 0.05 0.07 0.08 0.11 0.15 0.17 0.15 0.13 0.15 0.16 0.28 0.41 0.46 0.50 0.72 0.79 0.66 0.59 0.40 0.16 0.05 0.01 0.01 0.00 0.01 0.02 0.04 0.05
0.00 0.00 0.00 0.00 0.00 0.00 0.00 0.00 0.00 0.00 0.00 0.00 0.00 0.00 0.00 0.01 0.02 0.03 0.05 0.10 0.18 0.21 0.19 0.17 0.17 0.18 0.30 0.40 0.48 0.59 0.94 0.84 0.72 0.66 0.46 0.20 0.06 0.02 0.01 0.01 0.01 0.03 0.04
0.00 0.00 0.00 0.00 0.00 0.00 0.00 0.00 0.00 0.00 0.00 0.00 0.00 0.00 0.00 0.00 0.01 0.02 0.03 0.05 0.09 0.17 0.23 0.22 0.21 0.17 0.21 0.32 0.42 0.52 0.84 1.10 0.90 0.75 0.62 0.42 0.21 0.07 0.02 0.01 0.01 0.01 0.03
0.00 0.00 0.00 0.00 0.00 0.00 0.00 0.00 0.00 0.00 0.00 0.00 0.00 0.00 0.00 0.00 0.00 0.01 0.02 0.04 0.05 0.09 0.17 0.24 0.24 0.18 0.13 0.16 0.28 0.47 0.66 0.95 1.11 0.93 0.75 0.55 0.35 0.19 0.07 0.03 0.01 0.01 0.01
0.00 0.00 0.00 0.00 0.00 0.00 0.00 0.00 0.00 0.01 0.01 0.01 0.01 0.00 0.00 0.00 0.00 0.00 0.00 0.01 0.03 0.05 0.08 0.18 0.25 0.22 0.15 0.13 0.14 0.21 0.40 0.65 0.93 1.08 1.01 0.77 0.46 0.27 0.14 0.06 0.02 0.01 0.00
0.00 0.00 0.00 0.00 0.00 0.00 0.00 0.01 0.01 0.02 0.02 0.02 0.04 0.04 0.01 0.00 0.00 0.00 0.00 0.00 0.01 0.02 0.05 0.09 0.17 0.21 0.19 0.14 0.08 0.10 0.18 0.38 0.58 0.79 1.01 0.99 0.72 0.40 0.19 0.10 0.03 0.01 0.00
0.00 0.00 0.00 0.00 0.00 0.00 0.01 0.01 0.02 0.04 0.05 0.03 0.05 0.11 0.09 0.03 0.01 0.00 0.00 0.00 0.00 0.01 0.02 0.05 0.11 0.17 0.21 0.20 0.14 0.11 0.12 0.22 0.42 0.58 0.69 0.85 0.84 0.67 0.39 0.17 0.06 0.02 0.00
0.00 0.00 0.00 0.00 0.00 0.00 0.01 0.03 0.03 0.05 0.08 0.08 0.06 0.08 0.09 0.08 0.07 0.03 0.00 0.01 0.01 0.01 0.01 0.02 0.06 0.11 0.17 0.22 0.21 0.18 0.16 0.14 0.26 0.42 0.49 0.60 0.68 0.69 0.60 0.36 0.15 0.05 0.01
0.00 0.00 0.00 0.00 0.00 0.00 0.02 0.03 0.05 0.06 0.10 0.12 0.11 0.10 0.08 0.06 0.06 0.07 0.03 0.01 0.02 0.03 0.03 0.03 0.04 0.07 0.11 0.17 0.21 0.20 0.20 0.16 0.20 0.32 0.43 0.53 0.58 0.61 0.69 0.52 0.24 0.10 0.04
0.00 0.00 0.00 0.00 0.00 0.00 0.01 0.03 0.06 0.08 0.10 0.12 0.13 0.13 0.12 0.11 0.08 0.09 0.07 0.03 0.02 0.02 0.03 0.03 0.04 0.06 0.10 0.14 0.16 0.18 0.18 0.19 0.20 0.26 0.33 0.49 0.62 0.64 0.68 0.55 0.27 0.10 0.04
0.00 0.00 0.00 0.00 0.00 0.01 0.02 0.05 0.07 0.08 0.10 0.13 0.14 0.13 0.13 0.11 0.09 0.10 0.10 0.06 0.04 0.02 0.02 0.03 0.04 0.07 0.09 0.12 0.14 0.13 0.13 0.16 0.21 0.28 0.27 0.30 0.44 0.62 0.80 0.86 0.61 0.24 0.07
0.01 0.00 0.00 0.00 0.00 0.01 0.03 0.05 0.07 0.08 0.10 0.13 0.13 0.12 0.11 0.09 0.08 0.10 0.11 0.11 0.08 0.04 0.02 0.02 0.03 0.06 0.09 0.13 0.15 0.14 0.12 0.13 0.17 0.21 0.22 0.23 0.28 0.37 0.57 0.86 1.00 0.77 0.42
0.01 0.01 0.01 0.01 0.01 0.02 0.04 0.05 0.07 0.09 0.12 0.13 0.13 0.13 0.14 0.13 0.12 0.11 0.11 0.12 0.13 0.09 0.04 0.02 0.04 0.06 0.09 0.14 0.17 0.15 0.14 0.13 0.13 0.15 0.18 0.19 0.23 0.29 0.37 0.50 0.71 0.90 0.92
0.01 0.01 0.01 0.01 0.02 0.04 0.05 0.05 0.07 0.09 0.12 0.13 0.16 0.18 0.20 0.22 0.21 0.19 0.17 0.15 0.14 0.12 0.07 0.03 0.03 0.07 0.12 0.15 0.20 0.16 0.16 0.16 0.13 0.12 0.13 0.17 0.20 0.28 0.37 0.44 0.51 0.63 0.77
0.01 0.01 0.02 0.04 0.05 0.07 0.07 0.08 0.10 0.14 0.16 0.16 0.20 0.26 0.30 0.32 0.35 0.33 0.29 0.24 0.19 0.16 0.11 0.04 0.02 0.05 0.13 0.18 0.19 0.18 0.19 0.15 0.11 0.10 0.10 0.13 0.17 0.23 0.34 0.42 0.47 0.51 0.62
0.01 0.01 0.05 0.08 0.10 0.11 0.11 0.12 0.15 0.24 0.34 0.34 0.32 0.33 0.34 0.38 0.41 0.41 0.41 0.36 0.26 0.19 0.14 0.09 0.04 0.04 0.09 0.19 0.23 0.21 0.20 0.16 0.11 0.09 0.08 0.09 0.12 0.18 0.27 0.36 0.42 0.46 0.53
0.01 0.02 0.07 0.14 0.16 0.17 0.18 0.20 0.23 0.29 0.42 0.54 0.56 0.54 0.49 0.45 0.44 0.44 0.46 0.43 0.35 0.26 0.19 0.14 0.08 0.05 0.07 0.16 0.25 0.26 0.23 0.18 0.13 0.10 0.08 0.07 0.09 0.13 0.19 0.25 0.32 0.37 0.40
0.02 0.04 0.07 0.15 0.19 0.22 0.29 0.40 0.48 0.44 0.44 0.54 0.63 0.67 0.67 0.67 0.60 0.53 0.49 0.46 0.43 0.35 0.26 0.20 0.14 0.09 0.09 0.15 0.27 0.29 0.24 0.19 0.15 0.11 0.09 0.06 0.06 0.08 0.11 0.13 0.15 0.22 0.32
0.02 0.04 0.05 0.08 0.14 0.22 0.43 0.62 0.65 0.51 0.39 0.37 0.42 0.49 0.59 0.71 0.73 0.69 0.63 0.52 0.46 0.42 0.36 0.28 0.22 0.17 0.14 0.18 0.27 0.32 0.31 0.26 0.20 0.15 0.11 0.05 0.04 0.03 0.06 0.10 0.14 0.18 0.24
0.02 0.03 0.03 0.04 0.09 0.23 0.50 0.64 0.51 0.30 0.20 0.22 0.27 0.30 0.34 0.48 0.54 0.60 0.66 0.59 0.54 0.52 0.50 0.45 0.34 0.26 0.20 0.21 0.27 0.35 0.36 0.33 0.27 0.18 0.14 0.11 0.07 0.06 0.05 0.06 0.11 0.13 0.15
0.01 0.03 0.02 0.01 0.04 0.18 0.43 0.53 0.33 0.12 0.09 0.12 0.16 0.17 0.18 0.27 0.31 0.33 0.41 0.43 0.48 0.55 0.62 0.63 0.59 0.47 0.32 0.24 0.27 0.35 0.37 0.33 0.28 0.26 0.23 0.24 0.21 0.15 0.10 0.10 0.13 0.13 0.12
0.01 0.02 0.02 0.00 0.01 0.08 0.34 0.47 0.27 0.06 0.06 0.09 0.12 0.10 0.07 0.13 0.20 0.21 0.24 0.30 0.37 0.49 0.65 0.73 0.77 0.71 0.54 0.38 0.32 0.41 0.46 0.38 0.35 0.39 0.37 0.42 0.42 0.30 0.22 0.19 0.18 0.14 0.12
0.00 0.00 0.01 0.00 0.00 0.02 0.23 0.45 0.29 0.06 0.05 0.07 0.11 0.13 0.07 0.04 0.10 0.07 0.10 0.16 0.21 0.33 0.46 0.59 0.63 0.62 0.58 0.55 0.50 0.50 0.57 0.51 0.53 0.60 0.54 0.54 0.61 0.52 0.42 0.37 0.32 0.23 0.16
0.00 0.00 0.00 0.00 0.00 0.01 0.12 0.40 0.40 0.09 0.04 0.06 0.07 0.09 0.12 0.07 0.06 0.03 0.03 0.06 0.10 0.17 0.23 0.29 0.35 0.39 0.43 0.47 0.54 0.61 0.70 0.68 0.68 0.76 0.66 0.53 0.63 0.63 0.67 0.60 0.41 0.26 0.19

GEFSMA_prec_meanprecacc_030.txt.gz
Total_Precipitation_Accumulation
0.04 0.04 0.03 0.03 0.04 0.06 0.06 0.05 0.05 0.06 0.08 0.09 0.10 0.11 0.13 0.13 0.14 0.12 0.10 0.09 0.08 0.08 0.13 0.25 0.44 0.62 0.76 0.89 0.98 0.88 0.82 0.61 0.28 0.10 0.07 0.10 0.07 0.05 0.05 0.06 0.06 0.06 0.07
0.01 0.01 0.01 0.02 0.02 0.02 0.02 0.01 0.01 0.01 0.01 0.03 0.04 0.06 0.09 0.10 0.11 0.13 0.13 0.14 0.12 0.10 0.11 0.16 0.27 0.50 0.69 0.80 0.94 1.05 0.92 0.86 0.64 0.30 0.11 0.08 0.07 0.05 0.04 0.05 0.06 0.07 0.07
0.00 0.00 0.01 0.01 0.01 0.01 0.01 0.00 0.00 0.00 0.00 0.00 0.01 0.01 0.02 0.05 0.07 0.08 0.11 0.15 0.17 0.15 0.14 0.15 0.17 0.31 0.55 0.73 0.84 1.06 1.11 0.97 0.94 0.72 0.36 0.13 0.08 0.06 0.05 0.04 0.05 0.07 0.08
0.00 0.00 0.00 0.00 0.00 0.00 0.00 0.00 0.00 0.00 0.00 0.00 0.00 0.00 0.00 0.01 0.02 0.03 0.05 0.10 0.18 0.21 0.19 0.18 0.18 0.19 0.36 0.58 0.80 0.98 1.35 1.22 1.07 1.06 0.85 0.43 0.16 0.09 0.06 0.05 0.05 0.07 0.07
0.00 0.00 0.00 0.00 0.00 0.00 0.00 0.00 0.00 0.00 0.00 0.00 0.00 0.00 0.00 0.00 0.01 0.02 0.03 0.05 0.09 0.17 0.23 0.23 0.22 0.18 0.23 0.40 0.62 0.85 1.26 1.56 1.34 1.18 1.09 0.85 0.47 0.23 0.12 0.08 0.06 0.06 0.07
0.00 0.00 0.00 0.00 0.00 0.00 0.00 0.00 0.00 0.00 0.00 0.00 0.00 0.00 0.00 0.00 0.00 0.01 0.02 0.04 0.05 0.09 0.17 0.24 0.26 0.20 0.16 0.19 0.35 0.66 0.99 1.38 1.57 1.41 1.27 1.11 0.85 0.52 0.31 0.18 0.11 0.10 0.09
0.00 0.00 0.00 0.00 0.00 0.00 0.00 0.00 0.00 0.01 0.01 0.01 0.02 0.00 0.00 0.00 0.00 0.00 0.00 0.01 0.03 0.05 0.09 0.18 0.26 0.24 0.19 0.17 0.17 0.28 0.58 1.01 1.39 1.56 1.53 1.37 1.16 0.86 0.54 0.35 0.24 0.18 0.14
0.00 0.00 0.00 0.00 0.00 0.00 0.00 0.01 0.01 0.02 0.02 0.02 0.05 0.07 0.02 0.00 0.00 0.00 0.00 0.00 0.01 0.02 0.05 0.10 0.19 0.24 0.24 0.19 0.13 0.14 0.24 0.55 0.98 1.33 1.53 1.58 1.43 1.20 0.82 0.52 0.33 0.25 0.21
0.00 0.00 0.00 0.00 0.00 0.00 0.01 0.01 0.02 0.04 0.06 0.04 0.06 0.17 0.17 0.07 0.02 0.00 0.00 0.00 0.00 0.01 0.02 0.06 0.12 0.20 0.26 0.26 0.20 0.16 0.15 0.27 0.58 0.97 1.25 1.46 1.54 1.49 1.19 0.75 0.44 0.27 0.20
0.00 0.00 0.00 0.00 0.00 0.00 0.01 0.03 0.03 0.05 0.09 0.09 0.07 0.10 0.15 0.16 0.14 0.05 0.01 0.01 0.01 0.01 0.01 0.02 0.06 0.12 0.20 0.27 0.29 0.26 0.21 0.17 0.31 0.55 0.85 1.15 1.38 1.52 1.52 1.08 0.62 0.35 0.22
0.00 0.00 0.00 0.00 0.00 0.00 0.02 0.03 0.05 0.07 0.11 0.14 0.13 0.12 0.11 0.09 0.10 0.13 0.05 0.01 0.02 0.03 0.03 0.03 0.04 0.08 0.14 0.22 0.28 0.29 0.28 0.20 0.23 0.37 0.55 0.84 1.10 1.38 1.63 1.45 0.87 0.47 0.27
0.00 0.00 0.00 0.00 0.00 0.00 0.01 0.03 0.06 0.08 0.11 0.13 0.15 0.16 0.17 0.17 0.12 0.14 0.10 0.04 0.02 0.02 0.03 0.03 0.04 0.07 0.12 0.18 0.23 0.28 0.27 0.25 0.24 0.29 0.37 0.61 0.90 1.14 1.50 1.55 1.10 0.64 0.36
0.00 0.00 0.00 0.00 0.00 0.01 0.02 0.05 0.07 0.08 0.10 0.14 0.16 0.16 0.16 0.15 0.14 0.14 0.14 0.08 0.04 0.02 0.02 0.03 0.04 0.07 0.10 0.14 0.19 0.23 0.22 0.24 0.27 0.31 0.29 0.34 0.56 0.92 1.35 1.69 1.55 0.93 0.51
0.01 0.00 0.00 0.00 0.00 0.01 0.03 0.05 0.08 0.08 0.11 0.14 0.14 0.15 0.14 0.11 0.11 0.13 0.14 0.15 0.11 0.04 0.02 0.02 0.03 0.06 0.10 0.14 0.18 0.21 0.19 0.21 0.24 0.27 0.25 0.25 0.31 0.50 0.90 1.46 1.86 1.64 0.98
0.01 0.01 0.01 0.01 0.01 0.03 0.04 0.06 0.08 0.10 0.13 0.14 0.15 0.15 0.16 0.15 0.13 0.13 0.14 0.17 0.20 0.14 0.05 0.02 0.04 0.06 0.09 0.15 0.19 0.19 0.19 0.20 0.20 0.21 0.22 0.21 0.24 0.31 0.48 0.85 1.31 1.77 1.72
0.01 0.01 0.01 0.02 0.03 0.05 0.07 0.08 0.09 0.11 0.14 0.16 0.19 0.21 0.23 0.25 0.24 0.21 0.19 0.18 0.19 0.20 0.12 0.03 0.04 0.07 0.13 0.16 0.21 0.18 0.20 0.22 0.19 0.18 0.18 0.20 0.22 0.29 0.40 0.57 0.87 1.22 1.57
0.01 0.01 0.03 0.05 0.07 0.10 0.11 0.12 0.14 0.18 0.20 0.20 0.24 0.31 0.35 0.37 0.40 0.37 0.33 0.28 0.23 0.21 0.17 0.05 0.02 0.05 0.14 0.19 0.21 0.20 0.22 0.20 0.17 0.17 0.16 0.17 0.20 0.25 0.35 0.46 0.62 0.86 1.17
0.01 0.02 0.06 0.11 0.14 0.17 0.16 0.16 0.19 0.29 0.40 0.40 0.37 0.38 0.40 0.43 0.47 0.47 0.47 0.42 0.31 0.23 0.19 0.12 0.05 0.04 0.09 0.19 0.25 0.24 0.23 0.21 0.17 0.16 0.16 0.16 0.17 0.21 0.29 0.38 0.47 0.61 0.86
0.01 0.02 0.08 0.18 0.24 0.27 0.26 0.25 0.29 0.35 0.49 0.60 0.62 0.61 0.56 0.51 0.51 0.52 0.54 0.50 0.40 0.30 0.23 0.17 0.09 0.05 0.08 0.17 0.28 0.32 0.29 0.24 0.20 0.19 0.17 0.16 0.16 0.18 0.22 0.27 0.34 0.42 0.54
0.02 0.04 0.08 0.18 0.28 0.38 0.44 0.48 0.54 0.51 0.50 0.60 0.68 0.73 0.74 0.74 0.68 0.61 0.57 0.52 0.47 0.38 0.29 0.22 0.16 0.10 0.09 0.17 0.30 0.37 0.34 0.28 0.25 0.21 0.20 0.18 0.17 0.16 0.16 0.15 0.17 0.24 0.38
0.02 0.04 0.06 0.10 0.19 0.45 0.71 0.72 0.71 0.58 0.44 0.41 0.46 0.52 0.63 0.76 0.77 0.75 0.72 0.60 0.51 0.47 0.40 0.31 0.24 0.19 0.16 0.20 0.31 0.39 0.43 0.40 0.33 0.28 0.24 0.18 0.15 0.11 0.11 0.13 0.16 0.20 0.27
0.02 0.03 0.03 0.05 0.12 0.39 0.72 0.71 0.53 0.32 0.22 0.24 0.29 0.31 0.35 0.50 0.57 0.62 0.70 0.65 0.61 0.60 0.58 0.49 0.38 0.29 0.23 0.25 0.32 0.43 0.49 0.51 0.44 0.33 0.31 0.27 0.20 0.14 0.10 0.08 0.12 0.14 0.17
0.01 0.03 0.02 0.01 0.04 0.24 0.57 0.58 0.34 0.12 0.10 0.12 0.16 0.17 0.19 0.29 0.35 0.34 0.42 0.45 0.51 0.60 0.69 0.69 0.64 0.52 0.36 0.28 0.32 0.41 0.47 0.51 0.50 0.46 0.43 0.45 0.39 0.26 0.16 0.13 0.15 0.14 0.14
0.01 0.02 0.02 0.00 0.01 0.10 0.45 0.53 0.27 0.07 0.06 0.09 0.12 0.11 0.08 0.14 0.24 0.23 0.24 0.31 0.39 0.51 0.70 0.79 0.83 0.77 0.59 0.42 0.36 0.46 0.54 0.52 0.55 0.63 0.63 0.66 0.63 0.44 0.29 0.22 0.20 0.16 0.14
0.00 0.00 0.01 0.00 0.00 0.03 0.30 0.54 0.31 0.06 0.05 0.07 0.11 0.13 0.07 0.05 0.13 0.10 0.10 0.17 0.22 0.34 0.47 0.62 0.67 0.65 0.61 0.58 0.53 0.53 0.62 0.61 0.69 0.84 0.82 0.80 0.84 0.68 0.50 0.41 0.34 0.24 0.18
0.00 0.00 0.00 0.00 0.00 0.01 0.14 0.48 0.44 0.09 0.04 0.06 0.07 0.09 0.12 0.09 0.08 0.05 0.03 0.06 0.12 0.18 0.24 0.30 0.36 0.40 0.45 0.49 0.56 0.65 0.76 0.76 0.81 0.97 0.92 0.81 0.89 0.81 0.77 0.68 0.46 0.29 0.22

GEFSMA_prec_meanprecacc_036.txt.gz
Total_Precipitation_Accumulation
0.04 0.04 0.03 0.03 0.04 0.06 0.06 0.05 0.05 0.06 0.08 0.09 0.10 0.11 0.13 0.13 0.14 0.12 0.10 0.09 0.08 0.08 0.13 0.25 0.44 0.62 0.76 0.90 1.01 0.93 0.91 0.78 0.52 0.36 0.33 0.37 0.35 0.32 0.26 0.21 0.14 0.09 0.08
0.01 0.01 0.01 0.02 0.02 0.02 0.02 0.01 0.01 0.01 0.01 0.03 0.04 0.06 0.09 0.10 0.11 0.13 0.13 0.14 0.12 0.10 0.11 0.16 0.27 0.50 0.69 0.80 0.96 1.10 1.00 0.99 0.85 0.57 0.40 0.35 0.33 0.31 0.28 0.24 0.18 0.13 0.10
0.00 0.00 0.01 0.01 0.01 0.01 0.01 0.00 0.00 0.00 0.00 0.00 0.01 0.01 0.02 0.05 0.07 0.08 0.11 0.15 0.17 0.15 0.14 0.15 0.17 0.31 0.55 0.73 0.85 1.09 1.18 1.07 1.09 0.96 0.70 0.48 0.36 0.29 0.27 0.24 0.21 0.17 0.12
0.00 0.00 0.00 0.00 0.00 0.00 0.00 0.00 0.00 0.00 0.00 0.00 0.00 0.00 0.00 0.01 0.02 0.03 0.05 0.10 0.18 0.21 0.19 0.18 0.18 0.19 0.36 0.58 0.81 1.00 1.40 1.31 1.20 1.25 1.18 0.84 0.54 0.36 0.29 0.26 0.22 0.20 0.16
0.00 0.00 0.00 0.00 0.00 0.00 0.00 0.00 0.00 0.00 0.00 0.00 0.00 0.00 0.00 0.00 0.01 0.02 0.03 0.05 0.09 0.17 0.23 0.23 0.22 0.18 0.23 0.40 0.63 0.87 1.31 1.64 1.45 1.33 1.36 1.26 0.90 0.57 0.37 0.29 0.25 0.22 0.18
0.00 0.00 0.00 0.00 0.00 0.00 0.00 0.00 0.00 0.00 0.00 0.00 0.00 0.00 0.00 0.00 0.00 0.01 0.02 0.04 0.05 0.09 0.17 0.24 0.26 0.20 0.16 0.19 0.35 0.68 1.03 1.46 1.69 1.55 1.46 1.46 1.29 0.93 0.61 0.40 0.31 0.28 0.22
0.00 0.00 0.00 0.00 0.00 0.00 0.00 0.00 0.00 0.01 0.01 0.01 0.02 0.00 0.00 0.00 0.00 0.00 0.00 0.01 0.03 0.05 0.09 0.18 0.26 0.24 0.19 0.17 0.17 0.29 0.60 1.07 1.53 1.73 1.72 1.62 1.55 1.30 0.93 0.63 0.44 0.37 0.31
0.00 0.00 0.00 0.00 0.00 0.00 0.00 0.01 0.01 0.02 0.02 0.03 0.05 0.07 0.02 0.00 0.00 0.00 0.00 0.00 0.01 0.02 0.05 0.10 0.19 0.24 0.24 0.19 0.13 0.14 0.25 0.58 1.07 1.52 1.76 1.81 1.74 1.62 1.26 0.88 0.60 0.47 0.41
0.00 0.00 0.00 0.00 0.00 0.00 0.01 0.01 0.02 0.04 0.06 0.04 0.07 0.18 0.19 0.09 0.02 0.00 0.00 0.00 0.00 0.01 0.02 0.06 0.12 0.20 0.26 0.26 0.20 0.16 0.16 0.29 0.62 1.11 1.52 1.75 1.83 1.85 1.62 1.16 0.79 0.54 0.45
0.00 0.00 0.00 0.00 0.00 0.00 0.01 0.03 0.04 0.05 0.10 0.10 0.08 0.10 0.17 0.19 0.18 0.07 0.01 0.01 0.01 0.01 0.01 0.02 0.06 0.12 0.20 0.27 0.29 0.27 0.22 0.19 0.34 0.63 1.07 1.52 1.79 1.96 2.00 1.52 0.98 0.67 0.53
0.00 0.00 0.00 0.00 0.00 0.00 0.02 0.03 0.05 0.07 0.12 0.16 0.15 0.13 0.11 0.10 0.13 0.17 0.07 0.02 0.02 0.03 0.03 0.03 0.04 0.08 0.14 0.22 0.28 0.30 0.29 0.22 0.26 0.42 0.67 1.14 1.58 1.98 2.31 2.05 1.29 0.78 0.56
0.00 0.00 0.00 0.00 0.00 0.01 0.02 0.04 0.07 0.10 0.12 0.15 0.17 0.18 0.19 0.19 0.14 0.17 0.13 0.04 0.02 0.02 0.03 0.03 0.04 0.07 0.12 0.18 0.23 0.30 0.29 0.27 0.27 0.33 0.42 0.75 1.25 1.68 2.26 2.42 1.78 1.04 0.63
0.00 0.00 0.00 0.00 0.00 0.01 0.03 0.06 0.09 0.10 0.12 0.16 0.18 0.18 0.18 0.18 0.16 0.18 0.18 0.10 0.05 0.02 0.02 0.03 0.04 0.07 0.10 0.14 0.20 0.24 0.24 0.26 0.30 0.34 0.33 0.39 0.72 1.28 1.92 2.59 2.58 1.67 0.92
0.01 0.00 0.00 0.00 0.01 0.02 0.04 0.07 0.10 0.11 0.13 0.17 0.18 0.19 0.18 0.14 0.15 0.17 0.19 0.20 0.14 0.05 0.02 0.02 0.03 0.06 0.10 0.14 0.19 0.22 0.20 0.23 0.27 0.30 0.28 0.28 0.36 0.67 1.25 2.11 2.91 2.75 1.77
0.01 0.01 0.01 0.01 0.01 0.03 0.06 0.08 0.11 0.13 0.17 0.20 0.21 0.22 0.24 0.20 0.18 0.18 0.18 0.23 0.28 0.19 0.06 0.02 0.04 0.06 0.10 0.15 0.19 0.19 0.20 0.21 0.22 0.24 0.26 0.25 0.27 0.38 0.64 1.18 2.02 2.87 2.87
0.01 0.01 0.01 0.02 0.03 0.06 0.08 0.10 0.12 0.15 0.20 0.23 0.26 0.29 0.30 0.31 0.29 0.26 0.25 0.25 0.27 0.27 0.16 0.03 0.04 0.07 0.13 0.16 0.21 0.19 0.21 0.23 0.21 0.21 0.23 0.24 0.25 0.32 0.48 0.73 1.24 1.99 2.68
0.01 0.01 0.03 0.05 0.08 0.11 0.12 0.13 0.16 0.21 0.25 0.26 0.31 0.37 0.41 0.43 0.45 0.42 0.38 0.33 0.29 0.28 0.22 0.06 0.03 0.05 0.14 0.19 0.21 0.20 0.23 0.22 0.19 0.19 0.21 0.22 0.23 0.28 0.40 0.57 0.82 1.30 1.96
0.01 0.02 0.06 0.11 0.15 0.18 0.17 0.17 0.21 0.31 0.43 0.43 0.40 0.42 0.44 0.47 0.52 0.53 0.53 0.46 0.36 0.28 0.25 0.14 0.05 0.04 0.10 0.20 0.25 0.25 0.24 0.22 0.19 0.19 0.20 0.21 0.21 0.25 0.32 0.45 0.61 0.87 1.36
0.01 0.02 0.08 0.18 0.24 0.29 0.29 0.27 0.29 0.36 0.50 0.62 0.64 0.63 0.59 0.54 0.55 0.56 0.58 0.54 0.44 0.33 0.27 0.20 0.11 0.07 0.09 0.18 0.30 0.33 0.30 0.26 0.22 0.21 0.21 0.22 0.21 0.23 0.27 0.33 0.45 0.61 0.84
0.02 0.04 0.08 0.18 0.28 0.40 0.51 0.53 0.55 0.51 0.51 0.60 0.69 0.74 0.75 0.77 0.73 0.66 0.61 0.56 0.50 0.41 0.32 0.25 0.19 0.13 0.12 0.18 0.32 0.39 0.36 0.30 0.27 0.24 0.24 0.22 0.23 0.23 0.23 0.22 0.23 0.35 0.56
0.02 0.04 0.06 0.10 0.19 0.47 0.86 0.86 0.73 0.58 0.44 0.41 0.46 0.52 0.63 0.77 0.81 0.80 0.77 0.66 0.56 0.51 0.44 0.35 0.29 0.23 0.19 0.23 0.34 0.42 0.46 0.42 0.36 0.32 0.29 0.23 0.22 0.19 0.19 0.21 0.24 0.29 0.40
0.02 0.03 0.03 0.05 0.12 0.40 0.83 0.85 0.57 0.32 0.22 0.24 0.29 0.31 0.35 0.50 0.60 0.65 0.72 0.69 0.67 0.69 0.67 0.56 0.43 0.35 0.28 0.29 0.35 0.45 0.52 0.55 0.49 0.37 0.36 0.34 0.29 0.26 0.22 0.19 0.20 0.21 0.26
0.01 0.03 0.02 0.01 0.04 0.25 0.63 0.70 0.38 0.13 0.10 0.12 0.16 0.17 0.19 0.29 0.38 0.39 0.43 0.47 0.54 0.66 0.78 0.78 0.71 0.58 0.42 0.32 0.36 0.43 0.50 0.56 0.55 0.52 0.49 0.54 0.50 0.41 0.32 0.28 0.26 0.22 0.21
0.01 0.02 0.02 0.00 0.01 0.10 0.48 0.62 0.33 0.07 0.07 0.09 0.12 0.11 0.08 0.14 0.27 0.28 0.25 0.32 0.41 0.55 0.76 0.87 0.92 0.84 0.65 0.46 0.40 0.48 0.57 0.56 0.61 0.69 0.68 0.74 0.76 0.61 0.50 0.41 0.33 0.24 0.21
0.00 0.00 0.01 0.00 0.00 0.03 0.30 0.60 0.39 0.09 0.06 0.07 0.11 0.13 0.08 0.06 0.16 0.13 0.10 0.17 0.23 0.36 0.50 0.67 0.72 0.70 0.64 0.61 0.56 0.55 0.65 0.64 0.76 0.92 0.88 0.88 0.98 0.87 0.75 0.66 0.52 0.35 0.25
0.00 0.00 0.00 0.00 0.00 0.01 0.15 0.51 0.54 0.16 0.06 0.06 0.07 0.09 0.12 0.10 0.10 0.07 0.04 0.07 0.14 0.20 0.25 0.32 0.38 0.42 0.46 0.51 0.58 0.68 0.79 0.79 0.87 1.07 1.02 0.89 1.05 1.03 1.07 0.98 0.69 0.43 0.32

GEFSMA_prec_meanprecacc_042.txt.gz
Total_Precipitation_Accumulation
0.04 0.04 0.03 0.03 0.04 0.06 0.06 0.05 0.05 0.06 0.08 0.09 0.10 0.11 0.13 0.13 0.14 0.12 0.10 0.09 0.08 0.08 0.13 0.25 0.44 0.62 0.77 0.90 1.02 0.93 0.91 0.78 0.53 0.38 0.37 0.47 0.52 0.58 0.57 0.57 0.48 0.32 0.23
0.01 0.01 0.01 0.02 0.02 0.02 0.02 0.01 0.01 0.01 0.01 0.03 0.04 0.06 0.09 0.10 0.11 0.13 0.13 0.14 0.12 0.10 0.11 0.16 0.27 0.50 0.69 0.81 0.96 1.10 1.00 0.99 0.85 0.58 0.43 0.42 0.46 0.52 0.55 0.57 0.55 0.44 0.29
0.00 0.00 0.01 0.01 0.01 0.01 0.01 0.00 0.00 0.00 0.00 0.00 0.01 0.01 0.02 0.05 0.07 0.08 0.11 0.15 0.17 0.15 0.14 0.15 0.17 0.31 0.55 0.73 0.85 1.10 1.18 1.08 1.10 0.97 0.72 0.53 0.47 0.46 0.50 0.53 0.54 0.53 0.39
0.00 0.00 0.00 0.00 0.00 0.00 0.00 0.00 0.00 0.00 0.00 0.00 0.00 0.00 0.00 0.01 0.02 0.03 0.05 0.10 0.18 0.21 0.19 0.18 0.18 0.19 0.36 0.58 0.81 1.01 1.41 1.31 1.21 1.26 1.19 0.87 0.61 0.50 0.49 0.51 0.52 0.54 0.49
0.00 0.00 0.00 0.00 0.00 0.00 0.00 0.00 0.00 0.00 0.00 0.00 0.00 0.00 0.00 0.00 0.01 0.02 0.03 0.05 0.09 0.17 0.23 0.23 0.22 0.18 0.23 0.40 0.63 0.87 1.32 1.65 1.46 1.35 1.38 1.29 0.95 0.67 0.55 0.52 0.55 0.55 0.53
0.00 0.00 0.00 0.00 0.00 0.00 0.00 0.00 0.00 0.00 0.00 0.00 0.00 0.00 0.00 0.00 0.00 0.01 0.02 0.04 0.05 0.09 0.17 0.24 0.26 0.20 0.16 0.19 0.36 0.68 1.03 1.47 1.70 1.57 1.48 1.49 1.34 1.02 0.75 0.61 0.58 0.62 0.57
0.00 0.00 0.00 0.00 0.00 0.00 0.00 0.00 0.00 0.01 0.01 0.01 0.02 0.01 0.00 0.00 0.00 0.00 0.00 0.01 0.03 0.05 0.09 0.19 0.26 0.24 0.19 0.17 0.17 0.29 0.60 1.08 1.53 1.74 1.74 1.66 1.60 1.38 1.06 0.81 0.67 0.69 0.68
0.00 0.00 0.00 0.00 0.00 0.00 0.00 0.01 0.01 0.02 0.02 0.03 0.06 0.08 0.03 0.00 0.00 0.00 0.00 0.00 0.01 0.02 0.05 0.10 0.19 0.25 0.24 0.19 0.13 0.14 0.25 0.58 1.07 1.53 1.78 1.84 1.79 1.69 1.37 1.05 0.81 0.74 0.76
0.00 0.00 0.00 0.00 0.00 0.00 0.01 0.01 0.02 0.04 0.06 0.04 0.07 0.21 0.24 0.12 0.03 0.00 0.00 0.00 0.00 0.01 0.02 0.06 0.12 0.20 0.26 0.26 0.20 0.16 0.16 0.29 0.63 1.12 1.53 1.79 1.87 1.91 1.73 1.31 0.99 0.79 0.76
0.00 0.00 0.00 0.00 0.00 0.00 0.01 0.03 0.04 0.06 0.11 0.12 0.09 0.12 0.20 0.23 0.22 0.09 0.01 0.01 0.01 0.01 0.01 0.02 0.06 0.12 0.20 0.27 0.29 0.27 0.22 0.19 0.35 0.64 1.09 1.55 1.84 2.03 2.11 1.68 1.18 0.90 0.81
0.00 0.00 0.00 0.00 0.00 0.00 0.02 0.03 0.05 0.08 0.13 0.18 0.17 0.16 0.14 0.12 0.15 0.22 0.09 0.02 0.02 0.03 0.03 0.03 0.04 0.08 0.14 0.22 0.28 0.30 0.29 0.22 0.27 0.43 0.69 1.17 1.63 2.07 2.43 2.22 1.52 1.02 0.81
0.00 0.00 0.00 0.00 0.00 0.01 0.02 0.04 0.07 0.10 0.14 0.17 0.19 0.21 0.23 0.24 0.18 0.22 0.18 0.06 0.03 0.02 0.03 0.03 0.04 0.07 0.12 0.18 0.23 0.30 0.29 0.27 0.27 0.34 0.44 0.77 1.28 1.74 2.36 2.57 2.01 1.33 0.90
0.00 0.00 0.00 0.00 0.00 0.01 0.03 0.06 0.10 0.12 0.13 0.18 0.21 0.22 0.23 0.23 0.23 0.25 0.25 0.14 0.07 0.02 0.02 0.03 0.04 0.07 0.11 0.15 0.20 0.24 0.24 0.26 0.30 0.35 0.34 0.41 0.74 1.31 1.97 2.68 2.76 1.96 1.26
0.01 0.00 0.00 0.00 0.01 0.02 0.04 0.08 0.11 0.12 0.15 0.19 0.20 0.23 0.24 0.20 0.22 0.27 0.30 0.31 0.21 0.07 0.03 0.02 0.03 0.06 0.10 0.15 0.19 0.22 0.20 0.23 0.27 0.30 0.29 0.29 0.38 0.68 1.28 2.17 3.03 2.97 2.13
0.01 0.01 0.01 0.01 0.01 0.03 0.06 0.09 0.11 0.14 0.18 0.21 0.23 0.25 0.28 0.25 0.25 0.26 0.28 0.35 0.42 0.27 0.08 0.02 0.04 0.06 0.10 0.15 0.20 0.19 0.20 0.21 0.23 0.24 0.26 0.25 0.28 0.39 0.66 1.22 2.10 3.02 3.12
0.01 0.01 0.01 0.02 0.03 0.06 0.08 0.10 0.12 0.15 0.20 0.23 0.28 0.31 0.33 0.35 0.35 0.32 0.32 0.33 0.36 0.37 0.21 0.04 0.04 0.08 0.13 0.16 0.21 0.19 0.21 0.24 0.21 0.21 0.23 0.24 0.26 0.34 0.50 0.76 1.28 2.10 2.87
0.01 0.01 0.03 0.05 0.08 0.11 0.12 0.14 0.17 0.21 0.25 0.26 0.31 0.38 0.42 0.45 0.48 0.46 0.43 0.38 0.35 0.35 0.29 0.08 0.03 0.05 0.14 0.19 0.21 0.21 0.23 0.22 0.19 0.20 0.21 0.22 0.24 0.29 0.41 0.59 0.86 1.37 2.10
0.01 0.02 0.06 0.11 0.15 0.18 0.17 0.18 0.21 0.31 0.43 0.43 0.40 0.42 0.44 0.48 0.53 0.55 0.56 0.50 0.39 0.32 0.29 0.17 0.06 0.05 0.10 0.20 0.26 0.25 0.24 0.22 0.20 0.19 0.21 0.22 0.23 0.26 0.34 0.46 0.64 0.92 1.46
0.01 0.02 0.08 0.18 0.24 0.29 0.29 0.27 0.30 0.36 0.50 0.62 0.64 0.63 0.59 0.54 0.56 0.57 0.61 0.57 0.47 0.36 0.29 0.23 0.12 0.08 0.10 0.20 0.31 0.34 0.30 0.27 0.23 0.22 0.22 0.23 0.23 0.25 0.29 0.35 0.48 0.66 0.92
0.02 0.04 0.08 0.18 0.28 0.40 0.52 0.54 0.56 0.52 0.52 0.60 0.69 0.74 0.76 0.78 0.74 0.68 0.64 0.59 0.53 0.43 0.34 0.27 0.21 0.15 0.13 0.19 0.33 0.40 0.37 0.31 0.28 0.25 0.25 0.24 0.25 0.25 0.25 0.23 0.26 0.40 0.63
0.02 0.04 0.06 0.10 0.19 0.47 0.87 0.89 0.79 0.63 0.47 0.43 0.47 0.53 0.63 0.78 0.83 0.83 0.81 0.70 0.60 0.55 0.47 0.38 0.31 0.24 0.20 0.25 0.36 0.44 0.48 0.43 0.37 0.34 0.31 0.25 0.24 0.22 0.21 0.23 0.27 0.34 0.47
0.02 0.03 0.03 0.05 0.12 0.40 0.83 0.88 0.64 0.38 0.26 0.28 0.32 0.33 0.36 0.51 0.60 0.67 0.76 0.73 0.71 0.74 0.72 0.61 0.46 0.37 0.30 0.31 0.37 0.47 0.55 0.58 0.51 0.40 0.39 0.37 0.33 0.30 0.24 0.21 0.23 0.26 0.32
0.01 0.03 0.02 0.01 0.04 0.25 0.63 0.72 0.45 0.19 0.14 0.16 0.18 0.18 0.19 0.29 0.38 0.42 0.47 0.48 0.54 0.68 0.83 0.85 0.76 0.61 0.45 0.35 0.39 0.46 0.54 0.60 0.58 0.54 0.52 0.59 0.56 0.46 0.36 0.32 0.32 0.27 0.28
0.01 0.02 0.02 0.00 0.01 0.10 0.48 0.64 0.41 0.14 0.11 0.11 0.13 0.11 0.09 0.15 0.28 0.33 0.28 0.32 0.42 0.56 0.79 0.92 0.98 0.89 0.69 0.50 0.44 0.52 0.60 0.59 0.63 0.71 0.71 0.80 0.83 0.68 0.57 0.47 0.39 0.31 0.28
0.00 0.00 0.01 0.00 0.00 0.03 0.31 0.63 0.48 0.16 0.09 0.09 0.12 0.13 0.08 0.07 0.18 0.17 0.12 0.18 0.24 0.37 0.53 0.71 0.77 0.75 0.69 0.65 0.61 0.60 0.69 0.69 0.82 0.99 0.95 0.95 1.08 0.98 0.85 0.75 0.59 0.43 0.34
0.00 0.00 0.00 0.00 0.00 0.01 0.15 0.55 0.64 0.23 0.08 0.07 0.08 0.09 0.13 0.11 0.12 0.09 0.05 0.08 0.16 0.23 0.27 0.34 0.40 0.44 0.48 0.53 0.61 0.72 0.85 0.85 0.98 1.19 1.12 0.98 1.17 1.17 1.22 1.12 0.80 0.51 0.40

GEFSMA_prec_meanprecacc_048.txt.gz
Total_Precipitation_Accumulation
0.04 0.04 0.03 0.03 0.04 0.06 0.06 0.05 0.05 0.06 0.08 0.09 0.10 0.11 0.13 0.13 0.14 0.12 0.10 0.09 0.08 0.08 0.13 0.26 0.45 0.64 0.78 0.92 1.03 0.95 0.92 0.79 0.53 0.39 0.38 0.47 0.53 0.59 0.60 0.65 0.63 0.50 0.44
0.01 0.01 0.01 0.02 0.02 0.02 0.02 0.01 0.01 0.01 0.01 0.03 0.04 0.06 0.09 0.10 0.11 0.13 0.13 0.14 0.12 0.10 0.11 0.16 0.27 0.51 0.71 0.82 0.98 1.12 1.02 1.00 0.86 0.59 0.43 0.42 0.47 0.53 0.56 0.62 0.66 0.62 0.50
0.00 0.00 0.01 0.01 0.01 0.01 0.01 0.00 0.00 0.00 0.00 0.00 0.01 0.01 0.02 0.05 0.07 0.08 0.11 0.15 0.17 0.15 0.14 0.15 0.17 0.32 0.56 0.75 0.88 1.12 1.20 1.09 1.11 0.98 0.73 0.53 0.47 0.47 0.51 0.55 0.61 0.66 0.59
0.00 0.00 0.00 0.00 0.00 0.00 0.00 0.00 0.00 0.00 0.00 0.00 0.00 0.00 0.00 0.01 0.02 0.03 0.05 0.10 0.18 0.21 0.19 0.18 0.18 0.20 0.38 0.61 0.84 1.04 1.43 1.34 1.23 1.27 1.21 0.88 0.61 0.51 0.50 0.53 0.57 0.64 0.67
0.00 0.00 0.00 0.00 0.00 0.00 0.00 0.00 0.00 0.00 0.00 0.00 0.00 0.00 0.00 0.00 0.01 0.02 0.03 0.05 0.09 0.17 0.23 0.23 0.22 0.19 0.24 0.42 0.66 0.90 1.35 1.68 1.49 1.37 1.40 1.31 0.96 0.68 0.56 0.54 0.59 0.63 0.68
0.00 0.00 0.00 0.00 0.00 0.00 0.00 0.00 0.00 0.00 0.00 0.00 0.00 0.00 0.00 0.00 0.00 0.01 0.02 0.04 0.05 0.09 0.17 0.24 0.26 0.20 0.17 0.21 0.38 0.71 1.07 1.50 1.74 1.60 1.51 1.51 1.36 1.04 0.77 0.63 0.61 0.69 0.70
0.00 0.00 0.00 0.00 0.00 0.00 0.00 0.00 0.00 0.01 0.01 0.01 0.02 0.01 0.00 0.00 0.00 0.00 0.00 0.01 0.03 0.05 0.09 0.19 0.27 0.26 0.20 0.18 0.19 0.32 0.65 1.13 1.58 1.79 1.78 1.69 1.62 1.39 1.07 0.83 0.70 0.74 0.78
0.00 0.00 0.00 0.00 0.00 0.00 0.00 0.01 0.01 0.02 0.02 0.03 0.06 0.09 0.04 0.00 0.00 0.00 0.00 0.00 0.01 0.02 0.06 0.11 0.21 0.27 0.26 0.20 0.13 0.15 0.28 0.62 1.13 1.59 1.83 1.88 1.81 1.71 1.39 1.07 0.84 0.78 0.84
0.00 0.00 0.00 0.00 0.00 0.00 0.01 0.01 0.02 0.05 0.06 0.04 0.07 0.23 0.29 0.15 0.04 0.00 0.00 0.00 0.01 0.01 0.03 0.07 0.14 0.22 0.28 0.27 0.21 0.16 0.17 0.30 0.65 1.16 1.59 1.83 1.91 1.94 1.75 1.33 1.01 0.82 0.83
0.00 0.00 0.00 0.00 0.00 0.00 0.01 0.03 0.04 0.06 0.11 0.12 0.09 0.13 0.22 0.27 0.28 0.12 0.01 0.01 0.01 0.02 0.02 0.03 0.07 0.14 0.22 0.29 0.30 0.28 0.23 0.20 0.36 0.67 1.12 1.60 1.89 2.07 2.14 1.70 1.20 0.93 0.86
0.00 0.00 0.00 0.00 0.00 0.00 0.02 0.03 0.05 0.08 0.13 0.19 0.18 0.16 0.14 0.13 0.17 0.27 0.12 0.02 0.03 0.03 0.03 0.03 0.05 0.09 0.15 0.23 0.29 0.31 0.32 0.25 0.30 0.46 0.72 1.21 1.68 2.12 2.48 2.26 1.55 1.05 0.85
0.00 0.00 0.00 0.00 0.00 0.01 0.02 0.04 0.07 0.10 0.14 0.17 0.20 0.21 0.24 0.25 0.19 0.25 0.21 0.07 0.03 0.02 0.03 0.03 0.04 0.08 0.13 0.20 0.25 0.32 0.33 0.31 0.31 0.37 0.47 0.80 1.31 1.78 2.41 2.63 2.05 1.37 0.94
0.00 0.00 0.00 0.00 0.00 0.01 0.03 0.06 0.10 0.12 0.13 0.18 0.21 0.22 0.23 0.24 0.24 0.27 0.29 0.17 0.08 0.02 0.02 0.03 0.05 0.08 0.12 0.17 0.21 0.26 0.27 0.30 0.34 0.39 0.37 0.43 0.76 1.34 2.00 2.72 2.80 2.00 1.31
0.01 0.00 0.00 0.00 0.01 0.02 0.04 0.08 0.11 0.12 0.15 0.19 0.20 0.23 0.24 0.20 0.22 0.27 0.33 0.35 0.26 0.08 0.03 0.02 0.04 0.07 0.11 0.15 0.20 0.24 0.22 0.25 0.30 0.33 0.32 0.32 0.40 0.70 1.30 2.19 3.05 2.99 2.16
0.01 0.01 0.01 0.01 0.01 0.03 0.06 0.09 0.11 0.14 0.18 0.21 0.23 0.25 0.28 0.25 0.25 0.26 0.29 0.38 0.49 0.34 0.09 0.02 0.04 0.06 0.10 0.15 0.20 0.20 0.21 0.22 0.24 0.26 0.28 0.28 0.30 0.41 0.68 1.23 2.12 3.03 3.14
0.01 0.01 0.01 0.02 0.03 0.06 0.08 0.10 0.12 0.15 0.20 0.23 0.28 0.31 0.33 0.35 0.35 0.32 0.32 0.33 0.39 0.43 0.25 0.04 0.04 0.08 0.13 0.16 0.22 0.19 0.22 0.24 0.22 0.23 0.24 0.26 0.27 0.35 0.51 0.77 1.29 2.11 2.88
0.01 0.01 0.03 0.05 0.08 0.11 0.12 0.14 0.17 0.21 0.25 0.26 0.31 0.38 0.42 0.45 0.49 0.46 0.44 0.39 0.35 0.38 0.34 0.09 0.03 0.05 0.14 0.19 0.21 0.21 0.23 0.22 0.19 0.20 0.22 0.23 0.25 0.30 0.42 0.60 0.87 1.38 2.11
0.01 0.02 0.06 0.11 0.15 0.18 0.17 0.18 0.21 0.31 0.43 0.44 0.41 0.43 0.45 0.49 0.54 0.56 0.57 0.50 0.40 0.34 0.33 0.19 0.06 0.05 0.10 0.21 0.26 0.25 0.24 0.22 0.20 0.20 0.22 0.23 0.23 0.27 0.35 0.47 0.65 0.93 1.47
0.01 0.02 0.08 0.18 0.24 0.29 0.29 0.27 0.30 0.36 0.51 0.64 0.67 0.66 0.61 0.57 0.58 0.58 0.61 0.57 0.48 0.38 0.32 0.25 0.14 0.08 0.10 0.20 0.31 0.34 0.31 0.27 0.23 0.22 0.23 0.23 0.24 0.26 0.30 0.36 0.49 0.67 0.92
0.02 0.04 0.08 0.18 0.28 0.40 0.52 0.54 0.56 0.54 0.57 0.66 0.72 0.77 0.78 0.80 0.75 0.69 0.66 0.61 0.55 0.47 0.37 0.31 0.22 0.15 0.13 0.19 0.33 0.41 0.37 0.31 0.28 0.25 0.25 0.24 0.25 0.26 0.25 0.24 0.27 0.41 0.64
0.02 0.04 0.06 0.10 0.19 0.47 0.87 0.90 0.81 0.73 0.60 0.51 0.51 0.55 0.65 0.80 0.86 0.87 0.86 0.75 0.66 0.62 0.52 0.41 0.33 0.25 0.21 0.25 0.36 0.44 0.48 0.43 0.37 0.34 0.31 0.26 0.24 0.22 0.21 0.24 0.28 0.35 0.48
0.02 0.03 0.03 0.05 0.12 0.40 0.83 0.89 0.68 0.50 0.35 0.32 0.34 0.34 0.37 0.52 0.62 0.69 0.78 0.77 0.77 0.80 0.77 0.65 0.50 0.39 0.31 0.31 0.37 0.48 0.56 0.59 0.52 0.40 0.39 0.37 0.33 0.30 0.25 0.22 0.24 0.27 0.33
0.01 0.03 0.02 0.01 0.04 0.25 0.63 0.73 0.51 0.28 0.18 0.17 0.19 0.19 0.20 0.29 0.39 0.43 0.49 0.52 0.57 0.69 0.86 0.90 0.81 0.63 0.46 0.36 0.41 0.48 0.55 0.61 0.59 0.54 0.53 0.59 0.56 0.46 0.37 0.33 0.33 0.28 0.29
0.01 0.02 0.02 0.00 0.01 0.10 0.48 0.65 0.46 0.20 0.12 0.12 0.14 0.12 0.09 0.15 0.28 0.36 0.37 0.37 0.43 0.57 0.81 0.96 1.03 0.93 0.73 0.55 0.50 0.57 0.63 0.61 0.64 0.72 0.72 0.81 0.84 0.69 0.57 0.47 0.40 0.32 0.30
0.00 0.00 0.01 0.00 0.00 0.03 0.31 0.64 0.53 0.22 0.11 0.09 0.12 0.13 0.08 0.07 0.20 0.24 0.17 0.20 0.25 0.38 0.54 0.73 0.81 0.79 0.73 0.70 0.67 0.68 0.73 0.71 0.83 1.00 0.98 0.98 1.09 1.00 0.86 0.76 0.60 0.45 0.35
0.00 0.00 0.00 0.00 0.00 0.01 0.15 0.55 0.68 0.28 0.11 0.08 0.08 0.09 0.13 0.13 0.17 0.14 0.08 0.09 0.18 0.27 0.29 0.35 0.41 0.45 0.49 0.54 0.63 0.76 0.88 0.88 1.00 1.22 1.16 1.02 1.20 1.21 1.25 1.14 0.82 0.53 0.42

GEFSMA_prec_meanprecacc_054.txt.gz
Total_Precipitation_Accumulation
0.04 0.04 0.03 0.03 0.04 0.06 0.06 0.05 0.05 0.06 0.08 0.09 0.10 0.11 0.13 0.13 0.14 0.12 0.10 0.09 0.08 0.08 0.13 0.26 0.46 0.65 0.80 0.95 1.06 0.98 0.96 0.83 0.57 0.42 0.41 0.49 0.55 0.60 0.61 0.65 0.64 0.52 0.48
0.01 0.01 0.01 0.02 0.02 0.02 0.02 0.01 0.01 0.01 0.01 0.03 0.04 0.06 0.09 0.10 0.11 0.13 0.13 0.14 0.12 0.10 0.11 0.17 0.28 0.52 0.73 0.85 1.02 1.16 1.06 1.05 0.91 0.63 0.47 0.45 0.49 0.55 0.58 0.63 0.67 0.63 0.53
0.00 0.00 0.01 0.01 0.01 0.01 0.01 0.00 0.00 0.00 0.00 0.00 0.01 0.01 0.02 0.05 0.07 0.08 0.11 0.15 0.17 0.15 0.14 0.15 0.17 0.33 0.58 0.78 0.92 1.17 1.25 1.15 1.16 1.04 0.78 0.57 0.51 0.50 0.53 0.57 0.62 0.68 0.61
0.00 0.00 0.00 0.00 0.00 0.00 0.00 0.00 0.00 0.00 0.00 0.00 0.00 0.00 0.00 0.01 0.02 0.03 0.05 0.10 0.18 0.21 0.19 0.18 0.18 0.21 0.39 0.64 0.88 1.09 1.49 1.39 1.29 1.33 1.26 0.93 0.65 0.54 0.53 0.56 0.59 0.65 0.69
0.00 0.00 0.00 0.00 0.00 0.00 0.00 0.00 0.00 0.00 0.00 0.00 0.00 0.00 0.00 0.00 0.01 0.02 0.03 0.05 0.09 0.17 0.23 0.23 0.22 0.19 0.25 0.44 0.69 0.96 1.42 1.75 1.56 1.44 1.46 1.36 1.01 0.72 0.59 0.57 0.61 0.65 0.70
0.00 0.00 0.00 0.00 0.00 0.00 0.00 0.00 0.00 0.00 0.00 0.00 0.00 0.00 0.00 0.00 0.00 0.01 0.02 0.04 0.05 0.09 0.17 0.24 0.26 0.20 0.17 0.23 0.42 0.77 1.14 1.58 1.82 1.68 1.59 1.59 1.42 1.09 0.81 0.66 0.64 0.71 0.72
0.00 0.00 0.00 0.00 0.00 0.00 0.00 0.00 0.00 0.01 0.01 0.01 0.02 0.01 0.00 0.00 0.00 0.00 0.00 0.01 0.03 0.05 0.09 0.19 0.27 0.26 0.21 0.19 0.21 0.36 0.71 1.21 1.68 1.89 1.88 1.78 1.71 1.46 1.13 0.87 0.73 0.76 0.81
0.00 0.00 0.00 0.00 0.00 0.00 0.00 0.01 0.01 0.02 0.02 0.03 0.06 0.09 0.04 0.00 0.00 0.00 0.00 0.00 0.01 0.02 0.06 0.11 0.21 0.27 0.27 0.21 0.15 0.18 0.32 0.69 1.22 1.71 1.96 2.00 1.93 1.81 1.47 1.13 0.89 0.82 0.88
0.00 0.00 0.00 0.00 0.00 0.00 0.01 0.01 0.02 0.05 0.06 0.04 0.07 0.23 0.29 0.15 0.05 0.00 0.00 0.00 0.01 0.01 0.03 0.07 0.14 0.22 0.29 0.29 0.22 0.18 0.20 0.37 0.76 1.29 1.74 2.00 2.07 2.08 1.87 1.42 1.08 0.87 0.87
0.00 0.00 0.00 0.00 0.00 0.00 0.01 0.03 0.04 0.06 0.11 0.12 0.09 0.13 0.23 0.27 0.29 0.13 0.01 0.01 0.01 0.02 0.02 0.03 0.07 0.14 0.22 0.30 0.32 0.30 0.27 0.28 0.48 0.81 1.30 1.81 2.10 2.26 2.30 1.84 1.30 1.00 0.91
0.00 0.00 0.00 0.00 0.00 0.00 0.02 0.03 0.05 0.08 0.13 0.19 0.18 0.16 0.14 0.13 0.18 0.28 0.12 0.02 0.03 0.03 0.03 0.03 0.05 0.09 0.15 0.24 0.31 0.33 0.36 0.34 0.43 0.62 0.90 1.43 1.93 2.37 2.71 2.46 1.70 1.15 0.92
0.00 0.00 0.00 0.00 0.00 0.01 0.02 0.04 0.07 0.10 0.14 0.17 0.20 0.21 0.24 0.25 0.19 0.25 0.21 0.07 0.03 0.02 0.03 0.03 0.04 0.08 0.13 0.20 0.25 0.33 0.37 0.39 0.42 0.51 0.63 0.98 1.52 2.01 2.65 2.87 2.27 1.53 1.05
0.00 0.00 0.00 0.00 0.00 0.01 0.03 0.06 0.10 0.12 0.13 0.18 0.21 0.22 0.23 0.24 0.24 0.27 0.29 0.17 0.08 0.02 0.02 0.03 0.05 0.08 0.12 0.17 0.22 0.27 0.29 0.33 0.39 0.46 0.48 0.56 0.90 1.50 2.18 2.92 3.02 2.20 1.46
0.01 0.00 0.00 0.00 0.01 0.02 0.04 0.08 0.11 0.12 0.15 0.19 0.20 0.23 0.24 0.20 0.22 0.27 0.33 0.37 0.28 0.09 0.03 0.02 0.04 0.07 0.11 0.16 0.20 0.24 0.23 0.27 0.32 0.37 0.39 0.40 0.49 0.80 1.42 2.32 3.21 3.17 2.32
0.01 0.01 0.01 0.01 0.01 0.03 0.06 0.09 0.11 0.14 0.18 0.21 0.23 0.25 0.28 0.25 0.25 0.26 0.29 0.40 0.54 0.38 0.10 0.02 0.04 0.06 0.10 0.15 0.20 0.20 0.22 0.23 0.26 0.29 0.33 0.34 0.36 0.48 0.75 1.31 2.22 3.15 3.26
0.01 0.01 0.01 0.02 0.03 0.06 0.08 0.10 0.12 0.15 0.20 0.23 0.28 0.31 0.33 0.35 0.35 0.33 0.33 0.36 0.43 0.49 0.28 0.05 0.04 0.08 0.13 0.16 0.22 0.20 0.22 0.25 0.23 0.24 0.26 0.29 0.32 0.40 0.56 0.83 1.36 2.19 2.97
0.01 0.01 0.03 0.06 0.08 0.11 0.12 0.14 0.17 0.21 0.25 0.26 0.31 0.38 0.42 0.45 0.50 0.48 0.45 0.41 0.38 0.41 0.37 0.10 0.03 0.05 0.14 0.20 0.21 0.21 0.23 0.22 0.19 0.20 0.22 0.25 0.28 0.34 0.46 0.64 0.91 1.43 2.17
0.01 0.02 0.06 0.11 0.15 0.18 0.17 0.18 0.21 0.31 0.43 0.44 0.41 0.43 0.46 0.49 0.55 0.57 0.58 0.52 0.42 0.35 0.36 0.22 0.06 0.05 0.10 0.21 0.26 0.26 0.24 0.23 0.20 0.20 0.22 0.24 0.25 0.30 0.38 0.51 0.68 0.96 1.51
0.01 0.02 0.08 0.19 0.25 0.29 0.29 0.27 0.30 0.36 0.51 0.64 0.67 0.67 0.62 0.57 0.59 0.59 0.62 0.59 0.49 0.39 0.33 0.28 0.15 0.08 0.10 0.20 0.32 0.34 0.31 0.27 0.23 0.22 0.23 0.24 0.24 0.27 0.31 0.38 0.52 0.69 0.94
0.02 0.04 0.08 0.18 0.29 0.40 0.52 0.54 0.56 0.54 0.57 0.66 0.73 0.78 0.79 0.81 0.76 0.70 0.68 0.63 0.57 0.50 0.40 0.34 0.25 0.16 0.14 0.20 0.34 0.41 0.37 0.31 0.28 0.25 0.25 0.24 0.25 0.26 0.26 0.25 0.28 0.42 0.65
0.02 0.05 0.06 0.10 0.20 0.47 0.87 0.90 0.81 0.73 0.60 0.53 0.52 0.56 0.66 0.81 0.87 0.90 0.91 0.80 0.72 0.69 0.58 0.47 0.38 0.28 0.22 0.26 0.38 0.45 0.49 0.44 0.37 0.34 0.31 0.26 0.24 0.22 0.22 0.24 0.28 0.35 0.48
0.02 0.03 0.04 0.05 0.13 0.41 0.83 0.89 0.68 0.50 0.37 0.34 0.35 0.34 0.37 0.52 0.62 0.70 0.80 0.79 0.81 0.89 0.88 0.74 0.56 0.43 0.33 0.33 0.40 0.50 0.58 0.61 0.53 0.40 0.40 0.37 0.33 0.30 0.25 0.22 0.24 0.27 0.33
0.02 0.04 0.03 0.02 0.05 0.25 0.64 0.73 0.51 0.29 0.19 0.18 0.19 0.19 0.20 0.29 0.39 0.43 0.50 0.55 0.60 0.72 0.89 0.94 0.85 0.65 0.48 0.38 0.43 0.50 0.56 0.63 0.60 0.55 0.54 0.60 0.56 0.46 0.37 0.33 0.33 0.28 0.29
0.01 0.03 0.03 0.01 0.02 0.11 0.48 0.65 0.46 0.20 0.13 0.12 0.14 0.12 0.09 0.15 0.28 0.38 0.46 0.45 0.45 0.57 0.82 0.98 1.08 0.98 0.77 0.61 0.59 0.66 0.69 0.64 0.65 0.73 0.74 0.83 0.84 0.69 0.57 0.47 0.40 0.32 0.30
0.01 0.02 0.02 0.01 0.01 0.03 0.31 0.64 0.53 0.22 0.11 0.09 0.12 0.14 0.09 0.07 0.20 0.29 0.26 0.23 0.25 0.38 0.55 0.75 0.84 0.83 0.78 0.76 0.75 0.78 0.80 0.74 0.85 1.01 0.99 1.00 1.10 1.00 0.87 0.76 0.60 0.45 0.36
0.01 0.01 0.01 0.01 0.01 0.01 0.16 0.55 0.68 0.28 0.12 0.09 0.08 0.10 0.13 0.14 0.19 0.18 0.11 0.11 0.19 0.28 0.31 0.35 0.41 0.45 0.50 0.55 0.65 0.81 0.93 0.92 1.02 1.23 1.17 1.04 1.21 1.23 1.27 1.14 0.82 0.53 0.42

GEFSMA_prec_meanprecacc_060.txt.gz
Total_Precipitation_Accumulation
0.04 0.04 0.03 0.03 0.04 0.06 0.06 0.05 0.05 0.06 0.08 0.09 0.10 0.11 0.13 0.13 0.14 0.12 0.10 0.09 0.08 0.08 0.13 0.26 0.46 0.65 0.81 0.96 1.08 1.00 0.98 0.85 0.59 0.44 0.43 0.51 0.57 0.62 0.62 0.67 0.65 0.53 0.49
0.01 0.01 0.01 0.02 0.02 0.02 0.02 0.01 0.01 0.01 0.01 0.03 0.04 0.06 0.09 0.10 0.11 0.13 0.13 0.14 0.12 0.10 0.11 0.17 0.28 0.53 0.74 0.87 1.04 1.18 1.09 1.07 0.94 0.66 0.50 0.48 0.52 0.57 0.60 0.64 0.68 0.65 0.54
0.00 0.00 0.01 0.01 0.01 0.01 0.01 0.00 0.00 0.00 0.00 0.00 0.01 0.01 0.02 0.05 0.07 0.08 0.11 0.15 0.17 0.15 0.14 0.15 0.17 0.33 0.59 0.79 0.94 1.19 1.27 1.17 1.19 1.06 0.81 0.60 0.54 0.53 0.56 0.59 0.64 0.70 0.63
0.00 0.00 0.00 0.00 0.00 0.00 0.00 0.00 0.00 0.00 0.00 0.00 0.00 0.00 0.00 0.01 0.02 0.03 0.05 0.10 0.18 0.21 0.19 0.18 0.18 0.21 0.40 0.64 0.89 1.10 1.51 1.42 1.32 1.36 1.30 0.97 0.69 0.58 0.57 0.59 0.62 0.68 0.71
0.00 0.00 0.00 0.00 0.00 0.00 0.00 0.00 0.00 0.00 0.00 0.00 0.00 0.00 0.00 0.00 0.01 0.02 0.03 0.05 0.09 0.17 0.23 0.23 0.22 0.19 0.25 0.44 0.70 0.97 1.44 1.77 1.59 1.48 1.51 1.41 1.06 0.77 0.64 0.61 0.65 0.69 0.73
0.00 0.00 0.00 0.00 0.00 0.00 0.00 0.00 0.00 0.00 0.00 0.00 0.00 0.00 0.00 0.00 0.00 0.01 0.02 0.04 0.05 0.09 0.17 0.24 0.26 0.20 0.17 0.23 0.42 0.77 1.15 1.60 1.85 1.72 1.63 1.64 1.48 1.15 0.87 0.72 0.70 0.76 0.77
0.00 0.00 0.00 0.00 0.00 0.00 0.00 0.00 0.00 0.01 0.01 0.01 0.02 0.01 0.00 0.00 0.00 0.00 0.00 0.01 0.03 0.05 0.09 0.19 0.27 0.26 0.21 0.19 0.21 0.36 0.71 1.23 1.71 1.93 1.93 1.85 1.78 1.55 1.22 0.96 0.81 0.83 0.87
0.00 0.00 0.00 0.00 0.00 0.00 0.00 0.01 0.01 0.02 0.02 0.03 0.06 0.09 0.04 0.00 0.00 0.00 0.00 0.00 0.01 0.02 0.06 0.11 0.21 0.27 0.27 0.21 0.15 0.18 0.32 0.70 1.25 1.75 2.02 2.08 2.02 1.92 1.60 1.26 1.00 0.92 0.97
0.00 0.00 0.00 0.00 0.00 0.00 0.01 0.01 0.02 0.05 0.06 0.04 0.07 0.23 0.29 0.15 0.05 0.00 0.00 0.00 0.01 0.01 0.03 0.07 0.14 0.22 0.29 0.29 0.22 0.18 0.20 0.37 0.78 1.34 1.81 2.10 2.19 2.23 2.04 1.60 1.25 1.04 1.01
0.00 0.00 0.00 0.00 0.00 0.00 0.01 0.03 0.04 0.06 0.11 0.12 0.09 0.13 0.23 0.27 0.29 0.13 0.01 0.01 0.01 0.02 0.02 0.03 0.07 0.14 0.22 0.30 0.32 0.30 0.27 0.28 0.50 0.85 1.37 1.91 2.24 2.44 2.52 2.07 1.53 1.21 1.10
0.00 0.00 0.00 0.00 0.00 0.00 0.02 0.03 0.05 0.08 0.13 0.19 0.18 0.16 0.14 0.13 0.18 0.28 0.12 0.02 0.03 0.03 0.03 0.03 0.05 0.09 0.15 0.24 0.31 0.33 0.36 0.35 0.46 0.67 0.97 1.52 2.06 2.54 2.92 2.70 1.96 1.41 1.15
0.00 0.00 0.00 0.00 0.00 0.01 0.02 0.04 0.07 0.10 0.14 0.17 0.20 0.21 0.24 0.25 0.19 0.25 0.21 0.07 0.03 0.02 0.03 0.03 0.04 0.08 0.13 0.20 0.25 0.33 0.37 0.40 0.44 0.54 0.68 1.05 1.60 2.12 2.80 3.05 2.48 1.76 1.28
0.00 0.00 0.00 0.00 0.00 0.01 0.03 0.06 0.10 0.12 0.13 0.18 0.21 0.22 0.23 0.24 0.24 0.27 0.29 0.17 0.08 0.02 0.02 0.03 0.05 0.08 0.12 0.17 0.22 0.27 0.29 0.34 0.41 0.49 0.51 0.60 0.96 1.56 2.27 3.04 3.18 2.41 1.70
0.01 0.00 0.00 0.00 0.01 0.02 0.04 0.08 0.11 0.12 0.15 0.19 0.20 0.23 0.24 0.20 0.22 0.27 0.33 0.37 0.29 0.09 0.03 0.02 0.04 0.07 0.11 0.16 0.20 0.24 0.23 0.27 0.33 0.39 0.41 0.43 0.53 0.85 1.49 2.42 3.34 3.35 2.54
0.01 0.01 0.01 0.01 0.01 0.03 0.06 0.09 0.11 0.14 0.18 0.21 0.23 0.25 0.28 0.25 0.25 0.26 0.29 0.41 0.57 0.40 0.10 0.02 0.04 0.06 0.10 0.15 0.20 0.20 0.22 0.23 0.26 0.31 0.35 0.37 0.40 0.52 0.81 1.39 2.33 3.29 3.43
0.01 0.01 0.01 0.02 0.03 0.06 0.09 0.11 0.13 0.15 0.20 0.24 0.28 0.31 0.33 0.35 0.35 0.33 0.33 0.36 0.45 0.52 0.30 0.05 0.04 0.08 0.13 0.16 0.22 0.20 0.22 0.25 0.24 0.25 0.28 0.31 0.34 0.43 0.60 0.88 1.44 2.30 3.12
0.01 0.01 0.03 0.06 0.08 0.11 0.13 0.14 0.17 0.22 0.25 0.27 0.31 0.38 0.42 0.45 0.50 0.48 0.45 0.42 0.39 0.44 0.41 0.10 0.03 0.05 0.14 0.20 0.21 0.21 0.23 0.22 0.19 0.20 0.23 0.26 0.30 0.37 0.49 0.68 0.97 1.51 2.29
0.01 0.02 0.06 0.12 0.15 0.18 0.18 0.19 0.22 0.32 0.43 0.44 0.41 0.43 0.46 0.49 0.55 0.57 0.59 0.53 0.43 0.36 0.39 0.24 0.06 0.05 0.10 0.21 0.26 0.26 0.25 0.23 0.20 0.20 0.23 0.25 0.27 0.32 0.41 0.54 0.73 1.02 1.59
0.01 0.02 0.08 0.19 0.25 0.30 0.30 0.28 0.31 0.37 0.52 0.65 0.67 0.67 0.62 0.58 0.59 0.59 0.62 0.59 0.50 0.39 0.35 0.31 0.16 0.08 0.10 0.20 0.32 0.35 0.31 0.27 0.23 0.22 0.23 0.25 0.26 0.29 0.33 0.41 0.55 0.74 1.01
0.02 0.04 0.09 0.19 0.29 0.41 0.53 0.55 0.57 0.55 0.58 0.67 0.74 0.79 0.79 0.81 0.76 0.71 0.69 0.64 0.58 0.52 0.43 0.38 0.27 0.17 0.14 0.20 0.35 0.43 0.38 0.32 0.28 0.26 0.25 0.24 0.26 0.27 0.28 0.27 0.30 0.45 0.69
0.02 0.05 0.06 0.11 0.21 0.48 0.88 0.91 0.82 0.74 0.61 0.53 0.52 0.56 0.66 0.81 0.88 0.91 0.93 0.83 0.76 0.75 0.63 0.52 0.42 0.32 0.25 0.28 0.40 0.47 0.51 0.45 0.38 0.34 0.32 0.26 0.24 0.22 0.22 0.24 0.29 0.36 0.50
0.02 0.04 0.04 0.06 0.14 0.42 0.84 0.90 0.69 0.51 0.37 0.34 0.35 0.34 0.37 0.52 0.63 0.71 0.81 0.81 0.84 0.94 0.95 0.81 0.61 0.47 0.35 0.35 0.41 0.52 0.61 0.63 0.54 0.41 0.40 0.38 0.34 0.30 0.25 0.22 0.24 0.27 0.34
0.02 0.04 0.03 0.03 0.06 0.26 0.65 0.74 0.51 0.29 0.20 0.18 0.20 0.19 0.20 0.30 0.39 0.43 0.51 0.55 0.61 0.74 0.92 0.98 0.89 0.67 0.50 0.39 0.46 0.54 0.59 0.66 0.62 0.55 0.55 0.61 0.57 0.46 0.37 0.33 0.33 0.29 0.29
0.02 0.03 0.03 0.02 0.03 0.12 0.49 0.66 0.47 0.21 0.13 0.12 0.14 0.12 0.10 0.15 0.28 0.38 0.46 0.47 0.47 0.58 0.82 0.99 1.09 1.00 0.80 0.65 0.67 0.74 0.76 0.69 0.67 0.74 0.76 0.86 0.85 0.69 0.58 0.47 0.40 0.32 0.30
0.01 0.02 0.02 0.02 0.01 0.04 0.32 0.65 0.55 0.23 0.12 0.10 0.13 0.14 0.09 0.07 0.21 0.29 0.28 0.26 0.27 0.39 0.55 0.76 0.85 0.85 0.81 0.79 0.80 0.86 0.86 0.78 0.87 1.01 1.00 1.03 1.11 1.01 0.87 0.77 0.60 0.45 0.36
0.02 0.02 0.01 0.01 0.01 0.02 0.17 0.57 0.69 0.29 0.12 0.09 0.08 0.10 0.13 0.14 0.20 0.19 0.13 0.14 0.21 0.29 0.32 0.36 0.42 0.46 0.50 0.55 0.67 0.84 0.97 0.96 1.04 1.25 1.18 1.06 1.23 1.26 1.30 1.15 0.83 0.54 0.43

GEFSMA_prec_meanprecacc_066.txt.gz
Total_Precipitation_Accumulation
0.04 0.04 0.03 0.03 0.04 0.06 0.06 0.05 0.05 0.06 0.08 0.09 0.10 0.11 0.13 0.13 0.14 0.12 0.10 0.09 0.08 0.08 0.13 0.26 0.46 0.65 0.81 0.96 1.09 1.01 0.99 0.86 0.60 0.45 0.44 0.52 0.58 0.63 0.63 0.68 0.66 0.54 0.49
0.01 0.01 0.01 0.02 0.02 0.02 0.02 0.01 0.01 0.01 0.01 0.03 0.04 0.06 0.09 0.10 0.11 0.13 0.13 0.14 0.12 0.10 0.11 0.17 0.28 0.53 0.74 0.87 1.04 1.19 1.09 1.08 0.94 0.67 0.51 0.49 0.53 0.58 0.61 0.66 0.69 0.66 0.55
0.00 0.00 0.01 0.01 0.01 0.01 0.01 0.00 0.00 0.00 0.00 0.00 0.01 0.01 0.02 0.05 0.07 0.08 0.11 0.15 0.17 0.15 0.14 0.15 0.17 0.33 0.59 0.80 0.94 1.19 1.28 1.18 1.19 1.07 0.82 0.61 0.55 0.54 0.57 0.61 0.65 0.71 0.64
0.00 0.00 0.00 0.00 0.00 0.00 0.00 0.00 0.00 0.00 0.00 0.00 0.00 0.00 0.00 0.01 0.02 0.03 0.05 0.10 0.18 0.21 0.19 0.18 0.18 0.21 0.40 0.64 0.89 1.10 1.51 1.42 1.32 1.37 1.31 0.98 0.71 0.60 0.58 0.60 0.63 0.69 0.72
0.00 0.00 0.00 0.00 0.00 0.00 0.00 0.00 0.00 0.00 0.00 0.00 0.00 0.00 0.00 0.00 0.01 0.02 0.03 0.05 0.09 0.17 0.23 0.23 0.22 0.19 0.25 0.44 0.70 0.97 1.44 1.78 1.60 1.48 1.52 1.42 1.08 0.79 0.66 0.63 0.67 0.70 0.75
0.00 0.00 0.00 0.00 0.00 0.00 0.00 0.00 0.00 0.00 0.00 0.00 0.00 0.00 0.00 0.00 0.00 0.01 0.02 0.04 0.05 0.09 0.17 0.24 0.26 0.20 0.17 0.23 0.42 0.77 1.15 1.60 1.85 1.73 1.65 1.65 1.50 1.17 0.90 0.75 0.72 0.79 0.79
0.00 0.00 0.00 0.00 0.00 0.00 0.00 0.00 0.00 0.01 0.01 0.01 0.02 0.01 0.00 0.00 0.00 0.00 0.00 0.01 0.03 0.05 0.09 0.19 0.27 0.26 0.21 0.19 0.21 0.36 0.71 1.23 1.71 1.94 1.95 1.87 1.80 1.58 1.25 0.99 0.85 0.87 0.91
0.00 0.00 0.00 0.00 0.00 0.00 0.00 0.01 0.01 0.02 0.02 0.03 0.06 0.09 0.04 0.00 0.00 0.00 0.00 0.00 0.01 0.02 0.06 0.11 0.21 0.27 0.27 0.21 0.15 0.18 0.32 0.70 1.25 1.76 2.04 2.11 2.05 1.95 1.63 1.30 1.04 0.96 1.02
0.00 0.00 0.00 0.00 0.00 0.00 0.01 0.01 0.02 0.05 0.06 0.04 0.07 0.23 0.29 0.15 0.05 0.00 0.00 0.00 0.01 0.01 0.03 0.07 0.14 0.22 0.29 0.29 0.22 0.18 0.20 0.37 0.78 1.34 1.83 2.12 2.22 2.27 2.08 1.65 1.31 1.10 1.08
0.00 0.00 0.00 0.00 0.00 0.00 0.01 0.03 0.04 0.06 0.11 0.12 0.09 0.13 0.23 0.27 0.29 0.13 0.01 0.01 0.01 0.02 0.02 0.03 0.07 0.14 0.22 0.30 0.32 0.30 0.27 0.28 0.50 0.86 1.39 1.94 2.28 2.49 2.58 2.13 1.60 1.29 1.18
0.00 0.00 0.00 0.00 0.00 0.00 0.02 0.03 0.05 0.08 0.13 0.19 0.18 0.16 0.14 0.13 0.18 0.28 0.12 0.02 0.03 0.03 0.03 0.03 0.05 0.09 0.15 0.24 0.31 0.33 0.36 0.35 0.46 0.67 0.99 1.55 2.09 2.58 2.97 2.76 2.03 1.48 1.22
0.00 0.00 0.00 0.00 0.00 0.01 0.02 0.04 0.07 0.10 0.14 0.17 0.20 0.21 0.24 0.25 0.19 0.25 0.21 0.07 0.03 0.02 0.03 0.03 0.04 0.08 0.13 0.20 0.25 0.33 0.37 0.40 0.44 0.55 0.69 1.06 1.62 2.15 2.84 3.08 2.52 1.81 1.34
0.00 0.00 0.00 0.00 0.00 0.01 0.03 0.06 0.10 0.12 0.13 0.18 0.21 0.22 0.23 0.24 0.24 0.27 0.29 0.17 0.08 0.02 0.02 0.03 0.05 0.08 0.12 0.17 0.22 0.27 0.29 0.34 0.41 0.49 0.51 0.61 0.97 1.58 2.30 3.07 3.21 2.44 1.74
0.01 0.00 0.00 0.00 0.01 0.02 0.04 0.08 0.11 0.12 0.15 0.19 0.20 0.23 0.24 0.20 0.22 0.27 0.33 0.37 0.29 0.09 0.03 0.02 0.04 0.07 0.11 0.16 0.20 0.24 0.23 0.27 0.33 0.39 0.41 0.44 0.54 0.87 1.51 2.44 3.36 3.38 2.57
0.01 0.01 0.01 0.01 0.01 0.03 0.06 0.09 0.11 0.14 0.18 0.21 0.23 0.25 0.28 0.25 0.25 0.26 0.29 0.41 0.57 0.40 0.10 0.02 0.04 0.06 0.10 0.15 0.20 0.20 0.22 0.23 0.26 0.31 0.36 0.37 0.41 0.54 0.83 1.42 2.36 3.33 3.47
0.01 0.01 0.01 0.02 0.03 0.06 0.09 0.11 0.13 0.15 0.20 0.24 0.28 0.31 0.33 0.35 0.35 0.33 0.33 0.36 0.45 0.52 0.30 0.05 0.04 0.08 0.13 0.16 0.22 0.20 0.22 0.25 0.24 0.25 0.28 0.32 0.35 0.45 0.62 0.91 1.47 2.34 3.15
0.01 0.01 0.03 0.06 0.08 0.11 0.13 0.14 0.17 0.22 0.25 0.27 0.32 0.39 0.43 0.46 0.50 0.48 0.45 0.42 0.40 0.44 0.42 0.10 0.03 0.05 0.14 0.20 0.21 0.21 0.23 0.22 0.19 0.20 0.23 0.26 0.31 0.38 0.51 0.71 1.00 1.55 2.33
0.01 0.02 0.06 0.12 0.15 0.18 0.18 0.19 0.22 0.32 0.44 0.44 0.42 0.43 0.46 0.50 0.56 0.58 0.59 0.53 0.43 0.36 0.39 0.24 0.07 0.05 0.10 0.21 0.26 0.26 0.25 0.23 0.20 0.20 0.23 0.25 0.28 0.34 0.43 0.58 0.77 1.07 1.65
0.01 0.02 0.08 0.19 0.25 0.30 0.30 0.28 0.31 0.37 0.52 0.65 0.68 0.68 0.63 0.58 0.60 0.59 0.63 0.60 0.50 0.40 0.35 0.31 0.16 0.08 0.10 0.20 0.32 0.35 0.31 0.27 0.23 0.22 0.23 0.25 0.26 0.30 0.35 0.43 0.58 0.78 1.05
0.02 0.04 0.09 0.19 0.29 0.41 0.53 0.55 0.58 0.55 0.58 0.67 0.74 0.79 0.80 0.82 0.77 0.71 0.69 0.64 0.59 0.53 0.43 0.38 0.27 0.17 0.15 0.20 0.36 0.44 0.39 0.32 0.29 0.26 0.25 0.24 0.26 0.28 0.29 0.29 0.33 0.47 0.72
0.02 0.05 0.06 0.11 0.21 0.48 0.88 0.91 0.82 0.74 0.61 0.54 0.53 0.57 0.66 0.82 0.89 0.92 0.94 0.84 0.77 0.76 0.64 0.54 0.43 0.32 0.25 0.29 0.41 0.48 0.52 0.45 0.38 0.34 0.32 0.26 0.25 0.22 0.22 0.24 0.29 0.37 0.51
0.02 0.04 0.04 0.06 0.14 0.42 0.84 0.91 0.69 0.51 0.38 0.35 0.36 0.35 0.38 0.53 0.64 0.72 0.83 0.83 0.86 0.96 0.98 0.84 0.64 0.48 0.36 0.35 0.42 0.53 0.62 0.64 0.55 0.41 0.41 0.38 0.34 0.30 0.25 0.22 0.24 0.28 0.35
0.02 0.04 0.03 0.03 0.06 0.26 0.65 0.74 0.52 0.30 0.20 0.19 0.20 0.20 0.21 0.31 0.40 0.44 0.52 0.57 0.63 0.76 0.95 1.01 0.93 0.69 0.51 0.39 0.47 0.55 0.61 0.68 0.63 0.56 0.56 0.62 0.57 0.47 0.37 0.33 0.33 0.30 0.31
0.02 0.03 0.03 0.02 0.03 0.12 0.49 0.67 0.48 0.23 0.14 0.13 0.15 0.13 0.11 0.16 0.29 0.40 0.48 0.49 0.49 0.59 0.83 1.01 1.11 1.00 0.81 0.66 0.69 0.78 0.81 0.73 0.69 0.74 0.77 0.88 0.85 0.70 0.58 0.48 0.40 0.33 0.32
0.01 0.02 0.02 0.02 0.02 0.04 0.32 0.66 0.56 0.25 0.13 0.11 0.13 0.15 0.10 0.08 0.22 0.31 0.31 0.29 0.28 0.40 0.56 0.76 0.86 0.86 0.82 0.82 0.84 0.92 0.93 0.83 0.89 1.02 1.00 1.04 1.12 1.01 0.88 0.77 0.61 0.46 0.38
0.02 0.02 0.01 0.01 0.01 0.02 0.17 0.57 0.70 0.31 0.14 0.11 0.10 0.11 0.15 0.15 0.21 0.22 0.17 0.17 0.22 0.30 0.32 0.37 0.42 0.46 0.51 0.56 0.68 0.86 0.99 0.98 1.06 1.26 1.18 1.07 1.24 1.28 1.32 1.16 0.84 0.55 0.44

GEFSMA_prec_meanprecacc_072.txt.gz
Total_Precipitation_Accumulation
0.04 0.04 0.03 0.03 0.04 0.06 0.06 0.05 0.05 0.06 0.08 0.09 0.10 0.11 0.13 0.13 0.14 0.12 0.10 0.09 0.08 0.08 0.13 0.26 0.46 0.65 0.81 0.96 1.09 1.01 0.99 0.86 0.61 0.46 0.44 0.53 0.58 0.63 0.63 0.68 0.66 0.54 0.50
0.01 0.01 0.01 0.02 0.02 0.02 0.02 0.01 0.01 0.01 0.01 0.03 0.04 0.06 0.09 0.10 0.11 0.13 0.13 0.14 0.12 0.10 0.11 0.17 0.28 0.53 0.74 0.87 1.04 1.19 1.09 1.08 0.95 0.67 0.51 0.50 0.53 0.59 0.62 0.66 0.70 0.66 0.55
0.00 0.00 0.01 0.01 0.01 0.01 0.01 0.00 0.00 0.00 0.00 0.00 0.01 0.01 0.02 0.05 0.07 0.08 0.11 0.15 0.17 0.15 0.14 0.15 0.17 0.33 0.59 0.80 0.94 1.19 1.28 1.18 1.20 1.07 0.82 0.62 0.56 0.55 0.58 0.62 0.66 0.71 0.65
0.00 0.00 0.00 0.00 0.00 0.00 0.00 0.00 0.00 0.00 0.00 0.00 0.00 0.00 0.00 0.01 0.02 0.03 0.05 0.10 0.18 0.21 0.19 0.18 0.18 0.21 0.40 0.64 0.89 1.10 1.51 1.42 1.33 1.37 1.31 0.99 0.71 0.61 0.60 0.62 0.65 0.71 0.73
0.00 0.00 0.00 0.00 0.00 0.00 0.00 0.00 0.00 0.00 0.00 0.00 0.00 0.00 0.00 0.00 0.01 0.02 0.03 0.05 0.09 0.17 0.23 0.23 0.22 0.19 0.25 0.44 0.70 0.97 1.44 1.78 1.60 1.49 1.52 1.43 1.09 0.80 0.67 0.65 0.68 0.72 0.77
0.00 0.00 0.00 0.00 0.00 0.00 0.00 0.00 0.00 0.00 0.00 0.00 0.00 0.00 0.00 0.00 0.00 0.01 0.02 0.04 0.05 0.09 0.17 0.24 0.26 0.20 0.17 0.23 0.42 0.77 1.15 1.60 1.85 1.73 1.65 1.66 1.51 1.18 0.91 0.76 0.74 0.81 0.81
0.00 0.00 0.00 0.00 0.00 0.00 0.00 0.00 0.00 0.01 0.01 0.01 0.02 0.01 0.00 0.00 0.00 0.00 0.00 0.01 0.03 0.05 0.09 0.19 0.27 0.26 0.21 0.19 0.21 0.36 0.71 1.23 1.71 1.94 1.95 1.87 1.81 1.59 1.27 1.01 0.87 0.89 0.93
0.00 0.00 0.00 0.00 0.00 0.00 0.00 0.01 0.01 0.02 0.02 0.03 0.06 0.09 0.04 0.00 0.00 0.00 0.00 0.00 0.01 0.02 0.06 0.11 0.21 0.27 0.27 0.21 0.15 0.18 0.32 0.70 1.25 1.76 2.04 2.11 2.06 1.97 1.65 1.32 1.07 0.99 1.04
0.00 0.00 0.00 0.00 0.00 0.00 0.01 0.01 0.02 0.05 0.06 0.04 0.07 0.23 0.29 0.15 0.05 0.00 0.00 0.00 0.01 0.01 0.03 0.07 0.14 0.22 0.29 0.29 0.22 0.18 0.20 0.37 0.78 1.35 1.83 2.13 2.23 2.28 2.11 1.68 1.34 1.13 1.11
0.00 0.00 0.00 0.00 0.00 0.00 0.01 0.03 0.04 0.06 0.11 0.12 0.09 0.13 0.23 0.27 0.29 0.13 0.01 0.01 0.01 0.02 0.02 0.03 0.07 0.14 0.22 0.30 0.32 0.30 0.27 0.28 0.50 0.86 1.39 1.94 2.29 2.51 2.61 2.17 1.64 1.33 1.21
0.00 0.00 0.00 0.00 0.00 0.00 0.02 0.03 0.05 0.08 0.13 0.19 0.18 0.16 0.14 0.13 0.18 0.28 0.12 0.02 0.03 0.03 0.03 0.03 0.05 0.09 0.15 0.24 0.31 0.33 0.36 0.35 0.46 0.67 0.99 1.55 2.10 2.60 3.00 2.79 2.06 1.51 1.25
0.00 0.00 0.00 0.00 0.00 0.01 0.02 0.04 0.07 0.10 0.14 0.17 0.20 0.21 0.24 0.25 0.19 0.25 0.21 0.07 0.03 0.02 0.03 0.03 0.04 0.08 0.13 0.20 0.25 0.33 0.37 0.40 0.44 0.55 0.69 1.07 1.63 2.16 2.85 3.10 2.54 1.83 1.36
0.00 0.00 0.00 0.00 0.00 0.01 0.03 0.06 0.10 0.12 0.13 0.18 0.21 0.22 0.23 0.24 0.24 0.27 0.29 0.17 0.08 0.02 0.02 0.03 0.05 0.08 0.12 0.17 0.22 0.27 0.29 0.34 0.41 0.49 0.52 0.61 0.97 1.58 2.30 3.08 3.23 2.46 1.77
0.01 0.00 0.00 0.00 0.01 0.02 0.04 0.08 0.11 0.12 0.15 0.19 0.20 0.23 0.24 0.20 0.22 0.27 0.33 0.37 0.29 0.09 0.03 0.02 0.04 0.07 0.11 0.16 0.20 0.24 0.23 0.27 0.33 0.39 0.41 0.44 0.54 0.87 1.52 2.45 3.38 3.39 2.59
0.01 0.01 0.01 0.01 0.01 0.03 0.06 0.09 0.11 0.14 0.18 0.21 0.23 0.25 0.28 0.25 0.25 0.26 0.29 0.41 0.57 0.40 0.10 0.02 0.04 0.06 0.10 0.15 0.20 0.21 0.22 0.23 0.26 0.31 0.36 0.37 0.41 0.54 0.84 1.43 2.37 3.34 3.48
0.01 0.01 0.01 0.02 0.03 0.06 0.09 0.11 0.13 0.15 0.20 0.24 0.28 0.31 0.33 0.35 0.35 0.33 0.33 0.36 0.45 0.52 0.30 0.05 0.04 0.08 0.13 0.17 0.22 0.20 0.22 0.25 0.24 0.25 0.28 0.32 0.35 0.45 0.63 0.92 1.48 2.35 3.17
0.01 0.01 0.03 0.06 0.08 0.11 0.13 0.14 0.17 0.22 0.25 0.27 0.32 0.39 0.43 0.46 0.50 0.48 0.46 0.42 0.40 0.44 0.42 0.11 0.03 0.05 0.14 0.20 0.21 0.21 0.23 0.22 0.19 0.20 0.23 0.26 0.31 0.39 0.52 0.72 1.02 1.57 2.36
0.01 0.02 0.06 0.12 0.15 0.18 0.18 0.19 0.22 0.32 0.44 0.44 0.42 0.43 0.46 0.50 0.56 0.58 0.59 0.53 0.43 0.37 0.39 0.24 0.07 0.05 0.10 0.21 0.27 0.26 0.25 0.23 0.20 0.20 0.23 0.25 0.29 0.35 0.44 0.59 0.78 1.08 1.67
0.01 0.02 0.08 0.19 0.25 0.30 0.30 0.28 0.31 0.37 0.52 0.65 0.68 0.68 0.63 0.58 0.60 0.59 0.63 0.60 0.50 0.40 0.36 0.32 0.17 0.08 0.10 0.20 0.32 0.35 0.31 0.27 0.23 0.22 0.23 0.25 0.26 0.30 0.35 0.44 0.59 0.79 1.07
0.02 0.04 0.09 0.19 0.29 0.41 0.53 0.55 0.58 0.55 0.58 0.67 0.74 0.79 0.80 0.82 0.77 0.72 0.70 0.65 0.60 0.54 0.45 0.40 0.29 0.18 0.15 0.21 0.36 0.44 0.39 0.32 0.29 0.26 0.25 0.24 0.26 0.28 0.29 0.29 0.33 0.48 0.73
0.02 0.05 0.06 0.11 0.21 0.48 0.88 0.91 0.82 0.74 0.61 0.54 0.53 0.57 0.66 0.82 0.89 0.93 0.95 0.85 0.79 0.78 0.67 0.56 0.45 0.34 0.26 0.30 0.41 0.48 0.53 0.45 0.38 0.34 0.32 0.26 0.25 0.22 0.22 0.24 0.29 0.37 0.51
0.02 0.04 0.04 0.06 0.14 0.42 0.84 0.91 0.69 0.51 0.38 0.35 0.36 0.35 0.38 0.54 0.64 0.73 0.84 0.85 0.88 0.99 1.00 0.87 0.66 0.50 0.36 0.36 0.43 0.54 0.64 0.66 0.56 0.41 0.41 0.38 0.34 0.30 0.25 0.22 0.24 0.28 0.36
0.02 0.04 0.03 0.03 0.06 0.26 0.65 0.74 0.52 0.30 0.20 0.19 0.20 0.20 0.21 0.31 0.41 0.45 0.54 0.61 0.70 0.83 0.99 1.05 0.96 0.71 0.51 0.40 0.48 0.58 0.63 0.69 0.64 0.56 0.56 0.63 0.57 0.47 0.37 0.33 0.33 0.30 0.31
0.02 0.03 0.03 0.02 0.03 0.12 0.49 0.67 0.48 0.23 0.14 0.13 0.15 0.13 0.11 0.16 0.29 0.41 0.50 0.52 0.53 0.64 0.90 1.09 1.19 1.04 0.81 0.66 0.70 0.80 0.83 0.76 0.71 0.75 0.77 0.89 0.85 0.70 0.58 0.48 0.40 0.33 0.32
0.01 0.02 0.02 0.02 0.02 0.04 0.32 0.66 0.56 0.25 0.13 0.11 0.13 0.15 0.10 0.09 0.22 0.32 0.35 0.33 0.31 0.41 0.57 0.81 0.96 0.95 0.87 0.84 0.87 0.99 1.02 0.91 0.93 1.02 1.00 1.04 1.12 1.01 0.88 0.77 0.61 0.46 0.38
0.02 0.02 0.01 0.01 0.01 0.02 0.17 0.57 0.70 0.31 0.15 0.11 0.10 0.11 0.15 0.16 0.22 0.23 0.22 0.22 0.26 0.30 0.33 0.39 0.47 0.54 0.59 0.63 0.74 0.94 1.08 1.06 1.11 1.28 1.18 1.07 1.24 1.28 1.33 1.16 0.84 0.55 0.44

GEFSMA_prec_meanprecacc_078.txt.gz
Total_Precipitation_Accumulation
0.04 0.04 0.03 0.03 0.04 0.06 0.06 0.05 0.05 0.06 0.08 0.09 0.10 0.11 0.13 0.13 0.14 0.12 0.10 0.09 0.08 0.08 0.13 0.26 0.46 0.65 0.81 0.96 1.09 1.01 0.99 0.86 0.61 0.46 0.44 0.53 0.58 0.63 0.64 0.68 0.67 0.54 0.50
0.01 0.01 0.01 0.02 0.02 0.02 0.02 0.01 0.01 0.01 0.01 0.03 0.04 0.06 0.09 0.10 0.11 0.13 0.13 0.14 0.12 0.10 0.11 0.17 0.28 0.53 0.74 0.87 1.04 1.19 1.10 1.08 0.95 0.67 0.51 0.50 0.54 0.59 0.62 0.66 0.70 0.66 0.56
0.00 0.00 0.01 0.01 0.01 0.01 0.01 0.00 0.00 0.00 0.00 0.00 0.01 0.01 0.02 0.05 0.07 0.08 0.11 0.15 0.17 0.15 0.14 0.15 0.17 0.33 0.59 0.80 0.94 1.19 1.28 1.18 1.20 1.07 0.82 0.62 0.56 0.55 0.58 0.62 0.66 0.72 0.65
0.00 0.00 0.00 0.00 0.00 0.00 0.00 0.00 0.00 0.00 0.00 0.00 0.00 0.00 0.00 0.01 0.02 0.03 0.05 0.10 0.18 0.21 0.19 0.18 0.18 0.21 0.40 0.64 0.89 1.10 1.51 1.42 1.33 1.37 1.31 0.99 0.72 0.61 0.60 0.62 0.65 0.71 0.74
0.00 0.00 0.00 0.00 0.00 0.00 0.00 0.00 0.00 0.00 0.00 0.00 0.00 0.00 0.00 0.00 0.01 0.02 0.03 0.05 0.09 0.17 0.23 0.23 0.22 0.19 0.25 0.44 0.70 0.97 1.44 1.78 1.60 1.49 1.52 1.43 1.09 0.80 0.68 0.65 0.69 0.73 0.77
0.00 0.00 0.00 0.00 0.00 0.00 0.00 0.00 0.00 0.00 0.00 0.00 0.00 0.00 0.00 0.00 0.00 0.01 0.02 0.04 0.05 0.09 0.17 0.24 0.26 0.20 0.17 0.23 0.42 0.77 1.15 1.60 1.85 1.73 1.65 1.66 1.51 1.19 0.91 0.77 0.74 0.81 0.82
0.00 0.00 0.00 0.00 0.00 0.00 0.00 0.00 0.00 0.01 0.01 0.01 0.02 0.01 0.00 0.00 0.00 0.00 0.00 0.01 0.03 0.05 0.09 0.19 0.27 0.26 0.21 0.19 0.21 0.36 0.71 1.23 1.71 1.94 1.95 1.87 1.82 1.59 1.27 1.02 0.88 0.90 0.94
0.00 0.00 0.00 0.00 0.00 0.00 0.00 0.01 0.01 0.02 0.02 0.03 0.06 0.09 0.04 0.00 0.00 0.00 0.00 0.00 0.01 0.02 0.06 0.11 0.21 0.27 0.27 0.21 0.15 0.18 0.32 0.70 1.25 1.76 2.04 2.11 2.07 1.97 1.66 1.33 1.08 1.00 1.06
0.00 0.00 0.00 0.00 0.00 0.00 0.01 0.01 0.02 0.05 0.06 0.04 0.07 0.23 0.29 0.15 0.05 0.00 0.00 0.00 0.01 0.01 0.03 0.07 0.14 0.22 0.29 0.29 0.22 0.18 0.20 0.37 0.78 1.35 1.83 2.13 2.24 2.29 2.11 1.69 1.35 1.15 1.13
0.00 0.00 0.00 0.00 0.00 0.00 0.01 0.03 0.04 0.06 0.11 0.12 0.09 0.13 0.23 0.27 0.29 0.13 0.01 0.01 0.01 0.02 0.02 0.03 0.07 0.14 0.22 0.30 0.32 0.30 0.27 0.28 0.50 0.86 1.39 1.94 2.29 2.52 2.62 2.18 1.66 1.35 1.24
0.00 0.00 0.00 0.00 0.00 0.00 0.02 0.03 0.05 0.08 0.13 0.19 0.18 0.16 0.14 0.13 0.18 0.28 0.12 0.02 0.03 0.03 0.03 0.03 0.05 0.09 0.15 0.24 0.31 0.33 0.36 0.35 0.46 0.67 0.99 1.55 2.10 2.60 3.01 2.81 2.08 1.54 1.28
0.00 0.00 0.00 0.00 0.00 0.01 0.02 0.04 0.07 0.10 0.14 0.17 0.20 0.21 0.24 0.25 0.19 0.25 0.21 0.07 0.03 0.02 0.03 0.03 0.04 0.08 0.13 0.20 0.25 0.33 0.37 0.40 0.44 0.55 0.69 1.07 1.63 2.16 2.86 3.11 2.56 1.85 1.38
0.00 0.00 0.00 0.00 0.00 0.01 0.03 0.06 0.10 0.12 0.13 0.18 0.21 0.22 0.23 0.24 0.24 0.27 0.29 0.17 0.08 0.02 0.02 0.03 0.05 0.08 0.12 0.17 0.22 0.27 0.29 0.34 0.41 0.49 0.52 0.61 0.97 1.58 2.31 3.08 3.23 2.47 1.78
0.01 0.00 0.00 0.00 0.01 0.02 0.04 0.08 0.11 0.12 0.15 0.19 0.20 0.23 0.24 0.20 0.22 0.27 0.33 0.37 0.29 0.09 0.03 0.02 0.04 0.07 0.11 0.16 0.20 0.24 0.23 0.27 0.33 0.39 0.41 0.44 0.54 0.87 1.52 2.45 3.38 3.40 2.60
0.01 0.01 0.01 0.01 0.01 0.03 0.06 0.09 0.11 0.14 0.18 0.21 0.23 0.25 0.28 0.25 0.25 0.26 0.29 0.41 0.57 0.40 0.10 0.02 0.04 0.06 0.10 0.15 0.20 0.21 0.22 0.23 0.26 0.31 0.36 0.37 0.41 0.54 0.84 1.43 2.38 3.35 3.49
0.01 0.01 0.01 0.02 0.03 0.06 0.09 0.11 0.13 0.15 0.20 0.24 0.28 0.31 0.33 0.35 0.35 0.33 0.33 0.36 0.45 0.52 0.30 0.05 0.04 0.08 0.13 0.17 0.22 0.20 0.22 0.25 0.24 0.25 0.28 0.32 0.35 0.45 0.63 0.92 1.49 2.36 3.18
0.01 0.01 0.03 0.06 0.08 0.11 0.13 0.14 0.17 0.22 0.25 0.27 0.32 0.39 0.43 0.46 0.50 0.48 0.46 0.42 0.40 0.44 0.42 0.11 0.03 0.05 0.14 0.20 0.21 0.21 0.23 0.22 0.19 0.20 0.23 0.26 0.31 0.39 0.52 0.72 1.02 1.58 2.37
0.01 0.02 0.06 0.12 0.15 0.18 0.18 0.19 0.22 0.32 0.44 0.44 0.42 0.43 0.46 0.50 0.56 0.58 0.59 0.53 0.43 0.37 0.39 0.24 0.07 0.05 0.11 0.21 0.27 0.26 0.25 0.23 0.20 0.20 0.23 0.26 0.29 0.35 0.45 0.59 0.79 1.09 1.67
0.01 0.02 0.08 0.19 0.25 0.30 0.30 0.28 0.31 0.37 0.52 0.65 0.68 0.68 0.63 0.58 0.60 0.59 0.63 0.60 0.50 0.40 0.36 0.33 0.17 0.09 0.11 0.20 0.32 0.35 0.31 0.27 0.23 0.22 0.23 0.25 0.27 0.30 0.36 0.45 0.60 0.80 1.08
0.02 0.04 0.09 0.19 0.29 0.41 0.53 0.55 0.58 0.55 0.58 0.67 0.74 0.79 0.80 0.82 0.77 0.72 0.70 0.65 0.60 0.55 0.46 0.42 0.30 0.18 0.15 0.21 0.37 0.45 0.39 0.33 0.29 0.26 0.26 0.24 0.26 0.28 0.29 0.30 0.34 0.49 0.74
0.02 0.05 0.06 0.11 0.21 0.48 0.88 0.91 0.82 0.74 0.62 0.54 0.53 0.57 0.67 0.82 0.89 0.93 0.96 0.86 0.80 0.80 0.69 0.58 0.47 0.34 0.27 0.31 0.43 0.49 0.54 0.47 0.39 0.35 0.32 0.26 0.25 0.22 0.22 0.25 0.30 0.38 0.52
0.02 0.04 0.04 0.06 0.14 0.42 0.84 0.91 0.69 0.51 0.38 0.35 0.36 0.35 0.38 0.54 0.65 0.74 0.86 0.87 0.90 1.02 1.03 0.89 0.67 0.51 0.37 0.36 0.43 0.56 0.66 0.69 0.58 0.41 0.41 0.39 0.34 0.31 0.25 0.22 0.24 0.28 0.36
0.02 0.04 0.03 0.03 0.06 0.26 0.65 0.75 0.52 0.30 0.20 0.19 0.20 0.20 0.22 0.31 0.41 0.46 0.55 0.63 0.72 0.86 1.03 1.08 0.98 0.71 0.51 0.40 0.50 0.61 0.66 0.71 0.64 0.56 0.57 0.63 0.57 0.47 0.37 0.33 0.33 0.30 0.31
0.02 0.03 0.03 0.02 0.03 0.12 0.49 0.67 0.49 0.23 0.15 0.13 0.15 0.14 0.11 0.16 0.29 0.41 0.51 0.53 0.53 0.65 0.92 1.13 1.25 1.07 0.83 0.67 0.71 0.82 0.85 0.79 0.73 0.75 0.79 0.91 0.86 0.70 0.58 0.48 0.40 0.33 0.32
0.01 0.02 0.02 0.02 0.02 0.04 0.32 0.66 0.56 0.25 0.14 0.11 0.14 0.15 0.10 0.09 0.22 0.33 0.36 0.34 0.32 0.42 0.58 0.83 0.99 1.01 0.92 0.88 0.90 1.05 1.10 1.00 0.99 1.04 1.01 1.06 1.12 1.02 0.88 0.77 0.61 0.46 0.38
0.02 0.02 0.01 0.01 0.01 0.02 0.17 0.57 0.71 0.32 0.15 0.11 0.10 0.11 0.15 0.16 0.22 0.24 0.23 0.23 0.27 0.31 0.33 0.40 0.49 0.58 0.66 0.72 0.86 1.06 1.16 1.11 1.14 1.29 1.19 1.08 1.25 1.29 1.34 1.16 0.84 0.55 0.44

GEFSMA_prec_meanprecacc_084.txt.gz
Total_Precipitation_Accumulation
0.04 0.04 0.03 0.03 0.04 0.06 0.06 0.05 0.05 0.06 0.08 0.09 0.10 0.11 0.13 0.13 0.14 0.12 0.10 0.09 0.08 0.08 0.13 0.26 0.46 0.65 0.81 0.96 1.09 1.01 0.99 0.86 0.61 0.46 0.44 0.53 0.58 0.63 0.64 0.68 0.67 0.55 0.50
0.01 0.01 0.01 0.02 0.02 0.02 0.02 0.01 0.01 0.01 0.01 0.03 0.04 0.06 0.09 0.10 0.11 0.13 0.13 0.14 0.12 0.10 0.11 0.17 0.28 0.53 0.74 0.87 1.04 1.19 1.10 1.08 0.95 0.67 0.52 0.50 0.54 0.59 0.62 0.67 0.70 0.66 0.56
0.00 0.00 0.01 0.01 0.01 0.01 0.01 0.00 0.00 0.00 0.00 0.00 0.01 0.01 0.02 0.05 0.07 0.08 0.11 0.15 0.17 0.15 0.14 0.15 0.17 0.33 0.59 0.80 0.94 1.19 1.28 1.18 1.20 1.08 0.83 0.62 0.56 0.55 0.58 0.62 0.67 0.72 0.65
0.00 0.00 0.00 0.00 0.00 0.00 0.00 0.00 0.00 0.00 0.00 0.00 0.00 0.00 0.00 0.01 0.02 0.03 0.05 0.10 0.18 0.21 0.19 0.18 0.18 0.21 0.40 0.64 0.89 1.11 1.51 1.42 1.33 1.37 1.31 0.99 0.72 0.61 0.60 0.63 0.66 0.71 0.74
0.00 0.00 0.00 0.00 0.00 0.00 0.00 0.00 0.00 0.00 0.00 0.00 0.00 0.00 0.00 0.00 0.01 0.02 0.03 0.05 0.09 0.17 0.23 0.23 0.22 0.19 0.25 0.44 0.70 0.97 1.44 1.78 1.60 1.49 1.52 1.43 1.09 0.81 0.68 0.66 0.69 0.73 0.78
0.00 0.00 0.00 0.00 0.00 0.00 0.00 0.00 0.00 0.00 0.00 0.00 0.00 0.00 0.00 0.00 0.00 0.01 0.02 0.04 0.05 0.09 0.17 0.24 0.26 0.20 0.17 0.23 0.42 0.77 1.15 1.60 1.85 1.73 1.65 1.66 1.51 1.19 0.92 0.77 0.75 0.82 0.83
0.00 0.00 0.00 0.00 0.00 0.00 0.00 0.00 0.00 0.01 0.01 0.01 0.02 0.01 0.00 0.00 0.00 0.00 0.00 0.01 0.03 0.05 0.09 0.19 0.27 0.26 0.21 0.19 0.21 0.36 0.71 1.23 1.71 1.94 1.95 1.88 1.82 1.60 1.28 1.02 0.88 0.91 0.95
0.00 0.00 0.00 0.00 0.00 0.00 0.00 0.01 0.01 0.02 0.02 0.03 0.06 0.10 0.04 0.00 0.00 0.00 0.00 0.00 0.01 0.02 0.06 0.11 0.21 0.27 0.27 0.21 0.15 0.18 0.32 0.70 1.25 1.76 2.04 2.12 2.07 1.98 1.66 1.34 1.09 1.02 1.07
0.00 0.00 0.00 0.00 0.00 0.00 0.01 0.01 0.02 0.05 0.06 0.04 0.07 0.23 0.29 0.15 0.05 0.00 0.00 0.00 0.01 0.01 0.03 0.07 0.14 0.22 0.29 0.29 0.22 0.18 0.20 0.37 0.78 1.35 1.83 2.13 2.24 2.29 2.12 1.70 1.36 1.16 1.15
0.00 0.00 0.00 0.00 0.00 0.00 0.01 0.03 0.04 0.06 0.11 0.12 0.09 0.13 0.23 0.27 0.29 0.13 0.01 0.01 0.01 0.02 0.02 0.03 0.07 0.14 0.22 0.30 0.32 0.30 0.27 0.28 0.50 0.86 1.39 1.94 2.29 2.52 2.63 2.20 1.67 1.37 1.26
0.00 0.00 0.00 0.00 0.00 0.00 0.02 0.03 0.05 0.08 0.13 0.19 0.18 0.16 0.14 0.13 0.18 0.28 0.12 0.02 0.03 0.03 0.03 0.03 0.05 0.09 0.15 0.24 0.31 0.33 0.36 0.35 0.46 0.67 0.99 1.55 2.10 2.60 3.01 2.82 2.10 1.56 1.31
0.00 0.00 0.00 0.00 0.00 0.01 0.02 0.04 0.07 0.10 0.14 0.17 0.20 0.21 0.24 0.25 0.19 0.25 0.21 0.07 0.03 0.02 0.03 0.03 0.04 0.08 0.13 0.20 0.25 0.33 0.37 0.40 0.44 0.55 0.69 1.07 1.63 2.16 2.86 3.12 2.57 1.87 1.41
0.00 0.00 0.00 0.00 0.00 0.01 0.03 0.06 0.10 0.12 0.13 0.18 0.21 0.22 0.23 0.24 0.24 0.27 0.29 0.17 0.08 0.02 0.02 0.03 0.05 0.08 0.12 0.17 0.22 0.27 0.29 0.34 0.41 0.49 0.52 0.61 0.97 1.58 2.31 3.09 3.24 2.49 1.80
0.01 0.00 0.00 0.00 0.01 0.02 0.04 0.08 0.11 0.12 0.15 0.19 0.20 0.23 0.24 0.20 0.22 0.27 0.33 0.37 0.29 0.09 0.03 0.02 0.04 0.07 0.11 0.16 0.20 0.24 0.23 0.27 0.33 0.39 0.41 0.44 0.54 0.87 1.52 2.45 3.38 3.41 2.61
0.01 0.01 0.01 0.01 0.01 0.03 0.06 0.09 0.11 0.14 0.18 0.21 0.23 0.25 0.28 0.25 0.25 0.26 0.29 0.41 0.57 0.40 0.10 0.02 0.04 0.06 0.10 0.15 0.20 0.21 0.22 0.23 0.26 0.31 0.36 0.37 0.41 0.54 0.84 1.43 2.38 3.35 3.49
0.01 0.01 0.01 0.02 0.03 0.06 0.09 0.11 0.13 0.15 0.20 0.24 0.28 0.31 0.33 0.35 0.35 0.33 0.33 0.36 0.45 0.52 0.30 0.05 0.04 0.08 0.13 0.17 0.22 0.20 0.22 0.25 0.24 0.25 0.28 0.32 0.35 0.45 0.63 0.92 1.49 2.36 3.18
0.01 0.01 0.03 0.06 0.08 0.11 0.13 0.14 0.17 0.22 0.25 0.27 0.32 0.39 0.43 0.46 0.50 0.48 0.46 0.42 0.40 0.44 0.42 0.11 0.03 0.05 0.14 0.20 0.21 0.21 0.23 0.22 0.19 0.20 0.23 0.27 0.31 0.39 0.52 0.72 1.02 1.58 2.37
0.01 0.02 0.06 0.12 0.15 0.18 0.18 0.19 0.22 0.32 0.44 0.44 0.42 0.43 0.46 0.50 0.56 0.58 0.59 0.53 0.43 0.37 0.39 0.25 0.07 0.05 0.11 0.21 0.27 0.26 0.25 0.23 0.20 0.20 0.23 0.26 0.29 0.35 0.45 0.60 0.79 1.10 1.68
0.01 0.02 0.08 0.19 0.25 0.30 0.30 0.28 0.31 0.37 0.52 0.65 0.68 0.68 0.63 0.58 0.60 0.60 0.63 0.60 0.51 0.41 0.37 0.33 0.17 0.09 0.11 0.20 0.33 0.36 0.32 0.28 0.23 0.23 0.24 0.25 0.27 0.31 0.36 0.46 0.61 0.81 1.09
0.02 0.04 0.09 0.19 0.29 0.41 0.53 0.55 0.58 0.55 0.58 0.67 0.74 0.79 0.80 0.82 0.77 0.72 0.70 0.66 0.61 0.56 0.47 0.43 0.30 0.18 0.16 0.21 0.38 0.46 0.40 0.33 0.30 0.27 0.28 0.26 0.28 0.29 0.30 0.31 0.35 0.51 0.76
0.02 0.05 0.06 0.11 0.21 0.48 0.88 0.91 0.82 0.74 0.62 0.54 0.53 0.57 0.67 0.82 0.90 0.94 0.98 0.88 0.81 0.82 0.72 0.61 0.49 0.35 0.28 0.32 0.44 0.50 0.56 0.49 0.42 0.37 0.35 0.29 0.27 0.24 0.24 0.27 0.32 0.41 0.55
0.02 0.04 0.04 0.06 0.14 0.42 0.84 0.91 0.70 0.52 0.38 0.35 0.36 0.36 0.39 0.55 0.66 0.76 0.89 0.90 0.95 1.07 1.09 0.95 0.72 0.54 0.38 0.37 0.45 0.58 0.70 0.74 0.62 0.43 0.44 0.41 0.36 0.33 0.26 0.23 0.25 0.30 0.39
0.02 0.04 0.03 0.03 0.06 0.26 0.65 0.75 0.53 0.31 0.21 0.20 0.21 0.21 0.23 0.32 0.42 0.47 0.56 0.65 0.75 0.90 1.08 1.14 1.05 0.76 0.54 0.42 0.53 0.65 0.69 0.74 0.66 0.57 0.60 0.67 0.59 0.49 0.38 0.34 0.34 0.31 0.34
0.02 0.03 0.03 0.02 0.03 0.12 0.49 0.67 0.49 0.24 0.15 0.14 0.15 0.14 0.12 0.17 0.30 0.42 0.52 0.54 0.54 0.66 0.94 1.16 1.29 1.11 0.86 0.71 0.77 0.87 0.89 0.84 0.77 0.78 0.81 0.93 0.86 0.71 0.59 0.49 0.41 0.35 0.34
0.01 0.02 0.02 0.02 0.02 0.04 0.32 0.66 0.57 0.26 0.14 0.11 0.14 0.15 0.11 0.09 0.23 0.35 0.38 0.36 0.33 0.42 0.58 0.84 1.02 1.04 0.96 0.95 0.98 1.15 1.21 1.12 1.07 1.06 1.02 1.08 1.12 1.02 0.89 0.78 0.61 0.47 0.40
0.02 0.02 0.01 0.01 0.01 0.02 0.17 0.58 0.72 0.33 0.16 0.12 0.11 0.12 0.16 0.18 0.25 0.28 0.26 0.27 0.30 0.33 0.34 0.41 0.50 0.59 0.69 0.77 0.95 1.19 1.28 1.21 1.20 1.32 1.19 1.09 1.26 1.31 1.37 1.17 0.85 0.55 0.45